GFSGBSN_prec_precacc24_156.txt.gz
Total_Precipitation_Accumulation
0.04 0.06 0.08 0.08 0.09 0.07 0.03 0.01 0.00 0.00 0.00 0.00 0.00 0.00 0.00 0.00 0.00 0.00 0.00 0.00 0.00 0.00 0.00 0.00 0.00 0.00 0.00 0.00 0.00 0.00 0.00 0.00 0.00 0.00 0.00 0.00 0.00 0.00 0.00 0.00 0.00 0.00 0.00 0.00 0.00 0.00 0.00
0.08 0.10 0.10 0.09 0.12 0.16 0.18 0.13 0.07 0.03 0.01 0.00 0.00 0.00 0.00 0.00 0.00 0.00 0.00 0.00 0.00 0.00 0.00 0.00 0.00 0.00 0.00 0.00 0.00 0.00 0.00 0.00 0.00 0.00 0.00 0.00 0.00 0.00 0.00 0.00 0.00 0.00 0.00 0.00 0.00 0.00 0.00
0.33 0.19 0.13 0.10 0.09 0.10 0.12 0.13 0.15 0.16 0.13 0.08 0.04 0.01 0.01 0.00 0.00 0.00 0.00 0.00 0.00 0.00 0.00 0.00 0.00 0.00 0.00 0.00 0.00 0.00 0.00 0.00 0.00 0.00 0.00 0.00 0.00 0.00 0.00 0.00 0.00 0.00 0.00 0.00 0.00 0.00 0.00
0.86 0.68 0.62 0.60 0.51 0.39 0.29 0.20 0.16 0.13 0.11 0.08 0.05 0.02 0.02 0.00 0.00 0.00 0.00 0.00 0.00 0.00 0.00 0.00 0.00 0.00 0.00 0.00 0.00 0.00 0.00 0.00 0.00 0.00 0.00 0.00 0.00 0.00 0.00 0.00 0.00 0.00 0.00 0.00 0.00 0.00 0.00
0.56 0.58 0.56 0.53 0.52 0.55 0.57 0.54 0.48 0.41 0.32 0.20 0.12 0.10 0.09 0.05 0.04 0.03 0.00 0.00 0.00 0.00 0.00 0.00 0.00 0.00 0.00 0.00 0.00 0.00 0.00 0.00 0.00 0.00 0.00 0.00 0.00 0.00 0.00 0.00 0.00 0.00 0.00 0.00 0.00 0.00 0.00
0.23 0.23 0.23 0.23 0.23 0.21 0.20 0.19 0.20 0.21 0.21 0.17 0.08 0.07 0.09 0.08 0.08 0.03 0.01 0.00 0.00 0.00 0.00 0.00 0.00 0.00 0.00 0.00 0.00 0.00 0.00 0.00 0.00 0.00 0.00 0.00 0.00 0.00 0.00 0.00 0.00 0.00 0.00 0.00 0.00 0.00 0.00
0.08 0.10 0.11 0.11 0.10 0.09 0.08 0.07 0.07 0.06 0.04 0.04 0.04 0.04 0.05 0.07 0.07 0.03 0.01 0.00 0.00 0.00 0.00 0.00 0.00 0.00 0.00 0.00 0.00 0.00 0.00 0.00 0.00 0.00 0.00 0.00 0.00 0.00 0.00 0.00 0.00 0.00 0.00 0.00 0.00 0.00 0.00
0.03 0.04 0.03 0.03 0.04 0.03 0.02 0.03 0.04 0.05 0.05 0.04 0.03 0.02 0.02 0.04 0.04 0.01 0.00 0.00 0.00 0.00 0.00 0.00 0.00 0.00 0.00 0.00 0.00 0.00 0.00 0.00 0.00 0.00 0.00 0.00 0.00 0.00 0.00 0.00 0.00 0.00 0.00 0.00 0.00 0.00 0.00
0.02 0.02 0.02 0.02 0.02 0.01 0.01 0.01 0.01 0.01 0.00 0.00 0.01 0.01 0.04 0.05 0.05 0.01 0.00 0.01 0.00 0.00 0.00 0.00 0.00 0.00 0.00 0.00 0.00 0.00 0.00 0.00 0.00 0.00 0.00 0.00 0.00 0.00 0.00 0.00 0.00 0.00 0.00 0.00 0.00 0.00 0.00
0.01 0.01 0.02 0.02 0.02 0.02 0.02 0.01 0.00 0.00 0.00 0.00 0.00 0.01 0.04 0.05 0.04 0.01 0.01 0.00 0.00 0.00 0.00 0.00 0.00 0.00 0.00 0.00 0.00 0.00 0.00 0.00 0.00 0.00 0.00 0.00 0.00 0.00 0.00 0.00 0.00 0.00 0.00 0.00 0.00 0.00 0.00
0.02 0.01 0.01 0.01 0.01 0.02 0.01 0.01 0.00 0.00 0.00 0.00 0.00 0.01 0.04 0.04 0.05 0.05 0.02 0.02 0.00 0.00 0.01 0.00 0.00 0.00 0.00 0.00 0.00 0.00 0.00 0.00 0.00 0.00 0.00 0.00 0.00 0.00 0.00 0.00 0.00 0.00 0.00 0.00 0.00 0.00 0.00
0.02 0.02 0.02 0.02 0.02 0.02 0.01 0.00 0.00 0.00 0.00 0.00 0.01 0.03 0.08 0.04 0.01 0.04 0.01 0.01 0.00 0.00 0.00 0.00 0.00 0.00 0.00 0.00 0.00 0.00 0.00 0.00 0.00 0.00 0.00 0.00 0.00 0.00 0.00 0.00 0.00 0.00 0.00 0.00 0.00 0.00 0.00
0.03 0.02 0.02 0.02 0.02 0.02 0.02 0.01 0.01 0.01 0.01 0.00 0.02 0.06 0.07 0.03 0.02 0.01 0.01 0.02 0.04 0.02 0.00 0.00 0.00 0.00 0.00 0.00 0.00 0.00 0.00 0.00 0.00 0.00 0.00 0.00 0.00 0.00 0.00 0.00 0.00 0.00 0.00 0.00 0.00 0.00 0.00
0.07 0.04 0.03 0.03 0.03 0.03 0.03 0.02 0.02 0.03 0.02 0.01 0.05 0.09 0.06 0.02 0.01 0.00 0.07 0.07 0.09 0.00 0.00 0.00 0.00 0.00 0.00 0.00 0.00 0.00 0.00 0.00 0.00 0.00 0.00 0.00 0.00 0.00 0.00 0.00 0.00 0.00 0.00 0.00 0.00 0.00 0.00
0.06 0.06 0.06 0.04 0.03 0.03 0.03 0.03 0.03 0.03 0.04 0.02 0.04 0.05 0.07 0.02 0.01 0.01 0.19 0.19 0.03 0.00 0.00 0.00 0.00 0.00 0.00 0.00 0.00 0.00 0.00 0.00 0.00 0.00 0.00 0.00 0.00 0.00 0.00 0.00 0.00 0.00 0.00 0.00 0.00 0.00 0.00
0.08 0.06 0.06 0.05 0.05 0.04 0.04 0.04 0.04 0.04 0.05 0.02 0.03 0.07 0.05 0.02 0.03 0.12 0.27 0.07 0.00 0.00 0.00 0.00 0.00 0.00 0.00 0.00 0.00 0.00 0.00 0.00 0.00 0.00 0.00 0.00 0.00 0.00 0.00 0.00 0.00 0.00 0.00 0.01 0.02 0.07 0.03
0.12 0.10 0.08 0.07 0.06 0.06 0.06 0.06 0.07 0.09 0.08 0.04 0.07 0.09 0.04 0.04 0.12 0.39 0.28 0.06 0.00 0.00 0.00 0.00 0.00 0.00 0.00 0.00 0.00 0.00 0.00 0.00 0.00 0.00 0.00 0.00 0.00 0.00 0.00 0.00 0.00 0.00 0.00 0.00 0.02 0.02 0.04
0.11 0.13 0.11 0.09 0.08 0.08 0.09 0.09 0.10 0.11 0.18 0.18 0.12 0.07 0.10 0.06 0.22 0.26 0.15 0.02 0.01 0.00 0.00 0.00 0.00 0.00 0.00 0.00 0.00 0.00 0.00 0.00 0.00 0.00 0.00 0.00 0.00 0.00 0.00 0.00 0.00 0.00 0.00 0.01 0.08 0.09 0.13
0.12 0.11 0.13 0.10 0.09 0.08 0.09 0.10 0.10 0.16 0.31 0.19 0.19 0.07 0.14 0.20 0.14 0.07 0.04 0.02 0.02 0.01 0.02 0.02 0.00 0.00 0.00 0.00 0.01 0.00 0.00 0.00 0.00 0.00 0.00 0.00 0.00 0.00 0.00 0.00 0.01 0.00 0.02 0.02 0.07 0.12 0.09
0.14 0.12 0.13 0.17 0.13 0.12 0.12 0.12 0.15 0.20 0.34 0.44 0.42 0.17 0.16 0.39 0.08 0.01 0.03 0.04 0.04 0.01 0.01 0.01 0.01 0.01 0.01 0.01 0.01 0.01 0.01 0.01 0.00 0.00 0.00 0.00 0.00 0.00 0.00 0.00 0.01 0.01 0.01 0.02 0.05 0.12 0.03
0.23 0.17 0.14 0.15 0.23 0.17 0.17 0.16 0.16 0.26 0.37 0.44 0.72 0.42 0.08 0.15 0.11 0.03 0.07 0.04 0.03 0.04 0.02 0.04 0.05 0.02 0.03 0.02 0.02 0.02 0.02 0.02 0.00 0.00 0.00 0.00 0.00 0.00 0.00 0.00 0.00 0.00 0.00 0.00 0.00 0.01 0.03
0.19 0.29 0.21 0.16 0.17 0.29 0.27 0.24 0.19 0.23 0.48 0.95 0.83 0.25 0.13 0.04 0.02 0.03 0.10 0.07 0.04 0.04 0.06 0.07 0.08 0.03 0.03 0.05 0.02 0.02 0.04 0.03 0.01 0.00 0.00 0.00 0.00 0.00 0.00 0.00 0.00 0.00 0.00 0.00 0.00 0.00 0.00
0.20 0.24 0.37 0.25 0.22 0.23 0.37 0.37 0.31 0.31 0.46 1.35 0.87 0.22 0.25 0.15 0.07 0.09 0.05 0.04 0.04 0.07 0.12 0.08 0.09 0.15 0.15 0.07 0.07 0.10 0.03 0.04 0.01 0.00 0.00 0.00 0.00 0.00 0.00 0.00 0.00 0.01 0.00 0.00 0.00 0.00 0.00
0.15 0.19 0.28 0.48 0.29 0.26 0.30 0.43 0.48 0.43 0.49 0.73 0.61 0.20 0.31 0.32 0.12 0.07 0.02 0.02 0.06 0.17 0.14 0.13 0.16 0.17 0.12 0.07 0.14 0.09 0.07 0.03 0.01 0.00 0.00 0.00 0.00 0.01 0.01 0.02 0.03 0.00 0.00 0.00 0.00 0.00 0.00
0.19 0.14 0.16 0.34 0.57 0.36 0.31 0.30 0.51 0.64 0.60 0.62 0.64 0.39 0.35 0.30 0.08 0.06 0.06 0.06 0.07 0.10 0.23 0.13 0.09 0.12 0.10 0.10 0.23 0.22 0.17 0.04 0.00 0.00 0.00 0.00 0.00 0.04 0.09 0.04 0.01 0.00 0.00 0.00 0.00 0.00 0.00
0.34 0.17 0.14 0.17 0.38 0.64 0.40 0.33 0.34 0.58 0.66 0.65 0.64 0.79 0.52 0.36 0.11 0.02 0.04 0.08 0.14 0.17 0.19 0.06 0.01 0.02 0.07 0.19 0.29 0.26 0.14 0.05 0.00 0.00 0.00 0.00 0.00 0.08 0.16 0.21 0.08 0.00 0.00 0.00 0.00 0.01 0.00
0.68 0.28 0.16 0.15 0.18 0.44 0.61 0.47 0.31 0.47 0.67 0.64 0.53 0.52 1.27 0.88 0.14 0.01 0.02 0.04 0.06 0.09 0.16 0.09 0.04 0.03 0.05 0.15 0.23 0.10 0.03 0.01 0.00 0.00 0.00 0.01 0.03 0.10 0.11 0.18 0.05 0.00 0.00 0.00 0.04 0.06 0.00
0.76 0.53 0.22 0.14 0.17 0.22 0.49 0.60 0.50 0.38 0.64 0.76 0.48 0.30 0.84 1.10 0.24 0.03 0.01 0.04 0.03 0.03 0.09 0.09 0.11 0.05 0.08 0.10 0.07 0.05 0.02 0.00 0.00 0.00 0.01 0.01 0.02 0.03 0.05 0.12 0.04 0.00 0.00 0.01 0.03 0.00 0.00
0.53 0.84 0.28 0.18 0.14 0.18 0.31 0.56 0.69 0.44 0.54 0.86 0.75 0.30 0.42 0.80 0.59 0.15 0.04 0.01 0.07 0.04 0.06 0.07 0.07 0.04 0.03 0.03 0.01 0.00 0.01 0.00 0.00 0.00 0.00 0.01 0.01 0.01 0.02 0.01 0.01 0.00 0.00 0.00 0.00 0.00 0.00

GFSGBSN_prec_precacc24_159.txt.gz
Total_Precipitation_Accumulation
0.02 0.02 0.02 0.01 0.01 0.01 0.01 0.01 0.00 0.00 0.00 0.00 0.00 0.00 0.00 0.00 0.00 0.00 0.00 0.00 0.00 0.00 0.00 0.00 0.00 0.00 0.00 0.00 0.00 0.00 0.00 0.00 0.00 0.00 0.00 0.00 0.00 0.00 0.00 0.00 0.00 0.00 0.00 0.00 0.00 0.00 0.00
0.03 0.03 0.02 0.01 0.01 0.01 0.02 0.03 0.05 0.02 0.01 0.00 0.00 0.00 0.00 0.00 0.00 0.00 0.00 0.00 0.00 0.00 0.00 0.00 0.00 0.00 0.00 0.00 0.00 0.00 0.00 0.00 0.00 0.00 0.00 0.00 0.00 0.00 0.00 0.00 0.00 0.00 0.00 0.00 0.00 0.00 0.00
0.32 0.16 0.07 0.05 0.04 0.04 0.05 0.06 0.09 0.14 0.12 0.08 0.04 0.01 0.01 0.00 0.00 0.00 0.00 0.00 0.00 0.00 0.00 0.00 0.00 0.00 0.00 0.00 0.00 0.00 0.00 0.00 0.00 0.00 0.00 0.00 0.00 0.00 0.00 0.00 0.00 0.00 0.00 0.00 0.00 0.00 0.00
0.91 0.70 0.61 0.56 0.47 0.35 0.26 0.19 0.14 0.11 0.10 0.08 0.05 0.02 0.01 0.00 0.00 0.00 0.00 0.00 0.00 0.00 0.00 0.00 0.00 0.00 0.00 0.00 0.00 0.00 0.00 0.00 0.00 0.00 0.00 0.00 0.00 0.00 0.00 0.00 0.00 0.00 0.00 0.00 0.00 0.00 0.00
0.75 0.73 0.67 0.60 0.55 0.57 0.59 0.55 0.47 0.38 0.29 0.22 0.15 0.11 0.09 0.05 0.04 0.03 0.00 0.00 0.00 0.00 0.00 0.00 0.00 0.00 0.00 0.00 0.00 0.00 0.00 0.00 0.00 0.00 0.00 0.00 0.00 0.00 0.00 0.00 0.00 0.00 0.00 0.00 0.00 0.00 0.00
0.28 0.28 0.28 0.28 0.27 0.24 0.22 0.20 0.20 0.20 0.19 0.16 0.10 0.08 0.09 0.07 0.08 0.03 0.01 0.00 0.00 0.00 0.00 0.00 0.00 0.00 0.00 0.00 0.00 0.00 0.00 0.00 0.00 0.00 0.00 0.00 0.00 0.00 0.00 0.00 0.00 0.00 0.00 0.00 0.00 0.00 0.00
0.10 0.12 0.13 0.13 0.13 0.11 0.09 0.08 0.08 0.07 0.05 0.04 0.04 0.03 0.04 0.06 0.06 0.03 0.01 0.00 0.00 0.00 0.00 0.00 0.00 0.00 0.00 0.00 0.00 0.00 0.00 0.00 0.00 0.00 0.00 0.00 0.00 0.00 0.00 0.00 0.00 0.00 0.00 0.00 0.00 0.00 0.00
0.07 0.06 0.04 0.06 0.06 0.06 0.06 0.06 0.06 0.07 0.10 0.11 0.08 0.05 0.03 0.04 0.03 0.01 0.00 0.00 0.00 0.00 0.00 0.00 0.00 0.00 0.00 0.00 0.00 0.00 0.00 0.00 0.00 0.00 0.00 0.00 0.00 0.00 0.00 0.00 0.00 0.00 0.00 0.00 0.00 0.00 0.00
0.07 0.06 0.05 0.04 0.03 0.02 0.02 0.03 0.03 0.03 0.02 0.01 0.03 0.04 0.06 0.06 0.05 0.01 0.00 0.01 0.00 0.00 0.00 0.00 0.00 0.00 0.00 0.00 0.00 0.00 0.00 0.00 0.00 0.00 0.00 0.00 0.00 0.00 0.00 0.00 0.00 0.00 0.00 0.00 0.00 0.00 0.00
0.05 0.04 0.04 0.06 0.05 0.03 0.02 0.01 0.00 0.00 0.00 0.00 0.00 0.00 0.03 0.05 0.04 0.01 0.01 0.00 0.00 0.00 0.00 0.00 0.00 0.00 0.00 0.00 0.00 0.00 0.00 0.00 0.00 0.00 0.00 0.00 0.00 0.00 0.00 0.00 0.00 0.00 0.00 0.00 0.00 0.00 0.00
0.02 0.02 0.01 0.02 0.01 0.02 0.02 0.01 0.01 0.00 0.00 0.00 0.00 0.00 0.03 0.03 0.05 0.05 0.02 0.02 0.00 0.00 0.01 0.00 0.00 0.00 0.00 0.00 0.00 0.00 0.00 0.00 0.00 0.00 0.00 0.00 0.00 0.00 0.00 0.00 0.00 0.00 0.00 0.00 0.00 0.00 0.00
0.02 0.02 0.02 0.03 0.02 0.02 0.01 0.00 0.00 0.00 0.00 0.00 0.00 0.01 0.05 0.03 0.01 0.04 0.01 0.01 0.00 0.00 0.00 0.00 0.00 0.00 0.00 0.00 0.00 0.00 0.00 0.00 0.00 0.00 0.00 0.00 0.00 0.00 0.00 0.00 0.00 0.00 0.00 0.00 0.00 0.00 0.00
0.02 0.01 0.02 0.02 0.02 0.03 0.02 0.01 0.01 0.01 0.01 0.00 0.01 0.03 0.04 0.02 0.02 0.01 0.01 0.03 0.05 0.03 0.00 0.00 0.00 0.00 0.00 0.00 0.00 0.00 0.00 0.00 0.00 0.00 0.00 0.00 0.00 0.00 0.00 0.00 0.00 0.00 0.00 0.00 0.00 0.00 0.00
0.05 0.03 0.03 0.03 0.02 0.02 0.02 0.02 0.01 0.02 0.02 0.02 0.05 0.08 0.05 0.02 0.01 0.00 0.09 0.10 0.16 0.00 0.00 0.00 0.00 0.00 0.00 0.00 0.00 0.00 0.00 0.00 0.00 0.00 0.00 0.00 0.00 0.00 0.00 0.00 0.00 0.00 0.00 0.00 0.00 0.00 0.00
0.05 0.05 0.05 0.04 0.03 0.03 0.03 0.03 0.03 0.03 0.04 0.04 0.04 0.05 0.07 0.02 0.01 0.01 0.24 0.28 0.06 0.00 0.00 0.00 0.00 0.00 0.00 0.00 0.00 0.00 0.00 0.00 0.00 0.00 0.00 0.00 0.00 0.00 0.00 0.00 0.00 0.00 0.00 0.00 0.00 0.00 0.00
0.08 0.06 0.05 0.05 0.04 0.04 0.04 0.04 0.04 0.05 0.07 0.03 0.04 0.07 0.05 0.02 0.03 0.13 0.31 0.09 0.00 0.00 0.00 0.00 0.00 0.00 0.00 0.00 0.00 0.00 0.00 0.00 0.00 0.00 0.00 0.00 0.00 0.00 0.00 0.00 0.00 0.00 0.00 0.00 0.01 0.06 0.02
0.10 0.09 0.08 0.07 0.05 0.05 0.06 0.06 0.07 0.09 0.12 0.06 0.07 0.09 0.04 0.04 0.13 0.40 0.30 0.07 0.00 0.00 0.00 0.00 0.00 0.00 0.00 0.00 0.00 0.00 0.00 0.00 0.00 0.00 0.00 0.00 0.00 0.00 0.00 0.00 0.00 0.00 0.00 0.00 0.01 0.02 0.04
0.09 0.10 0.09 0.08 0.08 0.08 0.08 0.09 0.10 0.12 0.25 0.25 0.15 0.09 0.10 0.06 0.22 0.27 0.16 0.02 0.01 0.00 0.00 0.00 0.00 0.00 0.00 0.00 0.00 0.00 0.00 0.00 0.00 0.00 0.00 0.00 0.00 0.00 0.00 0.00 0.00 0.00 0.00 0.00 0.05 0.08 0.13
0.09 0.09 0.11 0.09 0.08 0.07 0.09 0.10 0.09 0.16 0.35 0.30 0.31 0.11 0.16 0.22 0.15 0.07 0.04 0.02 0.02 0.01 0.02 0.02 0.00 0.01 0.00 0.00 0.02 0.00 0.00 0.00 0.00 0.00 0.00 0.00 0.00 0.00 0.00 0.00 0.01 0.00 0.01 0.01 0.02 0.06 0.06
0.13 0.10 0.11 0.16 0.11 0.11 0.11 0.12 0.14 0.18 0.34 0.56 0.60 0.30 0.21 0.50 0.14 0.01 0.03 0.04 0.04 0.01 0.01 0.01 0.01 0.02 0.02 0.02 0.03 0.02 0.01 0.01 0.00 0.00 0.00 0.00 0.00 0.00 0.00 0.00 0.01 0.01 0.00 0.01 0.03 0.09 0.01
0.22 0.16 0.12 0.13 0.21 0.16 0.16 0.16 0.16 0.25 0.32 0.56 0.96 0.60 0.16 0.18 0.23 0.07 0.07 0.04 0.03 0.04 0.02 0.04 0.05 0.02 0.03 0.03 0.03 0.03 0.03 0.02 0.00 0.00 0.00 0.01 0.07 0.01 0.00 0.00 0.00 0.00 0.00 0.00 0.00 0.01 0.01
0.18 0.27 0.20 0.14 0.14 0.27 0.26 0.24 0.19 0.22 0.46 1.07 1.05 0.33 0.20 0.08 0.02 0.04 0.14 0.08 0.04 0.04 0.06 0.07 0.08 0.03 0.05 0.07 0.03 0.02 0.05 0.04 0.01 0.01 0.00 0.01 0.02 0.01 0.01 0.00 0.00 0.00 0.00 0.00 0.00 0.00 0.00
0.19 0.23 0.36 0.24 0.20 0.21 0.35 0.36 0.31 0.29 0.46 1.37 0.97 0.31 0.33 0.28 0.11 0.10 0.07 0.05 0.04 0.08 0.12 0.08 0.09 0.16 0.15 0.08 0.09 0.11 0.07 0.10 0.06 0.05 0.06 0.05 0.04 0.05 0.05 0.00 0.01 0.03 0.00 0.00 0.00 0.00 0.00
0.16 0.19 0.28 0.47 0.28 0.24 0.27 0.41 0.47 0.42 0.49 0.71 0.63 0.30 0.46 0.45 0.25 0.15 0.03 0.02 0.06 0.17 0.14 0.13 0.17 0.18 0.14 0.10 0.18 0.15 0.13 0.09 0.08 0.07 0.07 0.07 0.05 0.05 0.04 0.03 0.07 0.02 0.00 0.00 0.00 0.00 0.00
0.21 0.15 0.16 0.34 0.57 0.35 0.30 0.27 0.49 0.64 0.60 0.62 0.58 0.41 0.53 0.46 0.15 0.09 0.07 0.06 0.07 0.10 0.23 0.13 0.09 0.13 0.16 0.17 0.28 0.28 0.24 0.12 0.04 0.04 0.03 0.02 0.02 0.04 0.06 0.02 0.01 0.00 0.00 0.00 0.00 0.00 0.00
0.36 0.18 0.14 0.17 0.37 0.62 0.37 0.31 0.33 0.57 0.65 0.68 0.62 0.68 0.58 0.52 0.19 0.05 0.07 0.14 0.19 0.20 0.20 0.06 0.01 0.03 0.11 0.23 0.33 0.32 0.20 0.09 0.02 0.02 0.02 0.04 0.02 0.07 0.09 0.09 0.04 0.00 0.00 0.00 0.00 0.01 0.00
0.70 0.29 0.16 0.15 0.17 0.42 0.57 0.44 0.29 0.47 0.66 0.67 0.54 0.47 1.11 0.93 0.15 0.03 0.04 0.06 0.07 0.12 0.21 0.09 0.04 0.03 0.07 0.16 0.23 0.12 0.05 0.04 0.05 0.00 0.01 0.02 0.04 0.06 0.07 0.14 0.04 0.00 0.00 0.00 0.04 0.06 0.00
0.78 0.54 0.22 0.14 0.17 0.20 0.45 0.54 0.46 0.38 0.64 0.79 0.50 0.32 0.68 0.96 0.23 0.03 0.03 0.08 0.07 0.05 0.12 0.10 0.14 0.17 0.21 0.17 0.11 0.08 0.03 0.01 0.02 0.01 0.01 0.01 0.01 0.03 0.05 0.11 0.03 0.00 0.00 0.01 0.03 0.00 0.00
0.55 0.86 0.28 0.18 0.14 0.17 0.28 0.52 0.64 0.45 0.57 0.91 0.78 0.31 0.43 0.69 0.53 0.14 0.04 0.01 0.08 0.06 0.09 0.09 0.08 0.05 0.12 0.13 0.04 0.01 0.01 0.01 0.01 0.01 0.01 0.03 0.02 0.01 0.02 0.01 0.01 0.00 0.00 0.00 0.00 0.00 0.00

GFSGBSN_prec_precacc24_162.txt.gz
Total_Precipitation_Accumulation
0.00 0.00 0.00 0.00 0.00 0.00 0.00 0.00 0.00 0.00 0.00 0.00 0.00 0.00 0.00 0.00 0.00 0.00 0.00 0.00 0.00 0.00 0.00 0.00 0.00 0.00 0.00 0.00 0.00 0.00 0.00 0.00 0.00 0.00 0.00 0.00 0.00 0.00 0.00 0.00 0.00 0.00 0.00 0.00 0.00 0.00 0.00
0.01 0.01 0.01 0.01 0.01 0.00 0.00 0.00 0.00 0.00 0.00 0.00 0.00 0.00 0.00 0.00 0.00 0.00 0.00 0.00 0.00 0.00 0.00 0.00 0.00 0.00 0.00 0.00 0.00 0.00 0.00 0.00 0.00 0.00 0.00 0.00 0.00 0.00 0.00 0.00 0.00 0.00 0.00 0.00 0.00 0.00 0.00
0.26 0.13 0.07 0.04 0.04 0.03 0.02 0.01 0.01 0.01 0.01 0.04 0.04 0.01 0.01 0.00 0.00 0.00 0.00 0.00 0.00 0.00 0.00 0.00 0.00 0.00 0.00 0.00 0.00 0.00 0.00 0.00 0.00 0.00 0.00 0.00 0.00 0.00 0.00 0.00 0.00 0.00 0.00 0.00 0.00 0.00 0.00
0.93 0.71 0.61 0.56 0.47 0.35 0.25 0.15 0.10 0.06 0.03 0.04 0.03 0.02 0.01 0.00 0.00 0.00 0.00 0.00 0.00 0.00 0.00 0.00 0.01 0.00 0.00 0.00 0.00 0.00 0.00 0.00 0.00 0.00 0.00 0.00 0.00 0.00 0.00 0.00 0.00 0.00 0.00 0.00 0.00 0.00 0.00
0.85 0.91 0.84 0.72 0.61 0.60 0.61 0.56 0.47 0.37 0.27 0.18 0.10 0.07 0.06 0.04 0.04 0.03 0.00 0.00 0.00 0.00 0.00 0.01 0.00 0.00 0.00 0.00 0.00 0.00 0.00 0.00 0.00 0.00 0.00 0.00 0.00 0.00 0.00 0.00 0.00 0.00 0.00 0.00 0.00 0.00 0.00
0.31 0.34 0.39 0.43 0.42 0.35 0.29 0.23 0.21 0.20 0.18 0.15 0.08 0.03 0.06 0.06 0.08 0.03 0.01 0.00 0.00 0.00 0.00 0.00 0.00 0.00 0.00 0.00 0.00 0.00 0.00 0.00 0.00 0.00 0.00 0.00 0.00 0.00 0.00 0.00 0.00 0.00 0.00 0.00 0.00 0.00 0.00
0.13 0.16 0.18 0.19 0.19 0.17 0.13 0.10 0.09 0.07 0.06 0.03 0.01 0.00 0.03 0.05 0.06 0.03 0.01 0.00 0.00 0.00 0.00 0.00 0.00 0.00 0.00 0.00 0.00 0.00 0.00 0.00 0.00 0.00 0.00 0.00 0.00 0.00 0.00 0.00 0.00 0.00 0.00 0.00 0.00 0.00 0.00
0.10 0.07 0.06 0.07 0.09 0.10 0.08 0.08 0.08 0.08 0.10 0.11 0.08 0.04 0.03 0.04 0.04 0.01 0.00 0.00 0.00 0.00 0.00 0.00 0.00 0.00 0.00 0.00 0.00 0.00 0.00 0.00 0.00 0.00 0.00 0.00 0.00 0.00 0.00 0.00 0.00 0.00 0.00 0.00 0.00 0.00 0.00
0.30 0.22 0.14 0.09 0.06 0.03 0.03 0.03 0.04 0.04 0.03 0.02 0.03 0.04 0.06 0.06 0.05 0.01 0.00 0.01 0.00 0.00 0.00 0.00 0.00 0.00 0.00 0.00 0.00 0.00 0.00 0.00 0.00 0.00 0.00 0.00 0.00 0.00 0.00 0.00 0.00 0.00 0.00 0.00 0.00 0.00 0.00
0.21 0.24 0.27 0.26 0.22 0.18 0.12 0.08 0.06 0.05 0.04 0.03 0.02 0.02 0.03 0.05 0.05 0.02 0.02 0.00 0.00 0.00 0.00 0.00 0.00 0.00 0.00 0.00 0.00 0.00 0.00 0.00 0.00 0.00 0.00 0.00 0.00 0.00 0.00 0.00 0.00 0.00 0.00 0.00 0.00 0.00 0.00
0.05 0.07 0.11 0.12 0.12 0.13 0.08 0.05 0.05 0.04 0.03 0.02 0.02 0.01 0.02 0.02 0.05 0.05 0.03 0.02 0.00 0.00 0.01 0.00 0.00 0.00 0.00 0.00 0.00 0.00 0.00 0.00 0.00 0.00 0.00 0.00 0.00 0.00 0.00 0.00 0.00 0.00 0.00 0.00 0.00 0.00 0.00
0.04 0.03 0.03 0.06 0.06 0.04 0.02 0.02 0.01 0.01 0.01 0.01 0.00 0.01 0.03 0.03 0.01 0.04 0.01 0.01 0.01 0.03 0.02 0.00 0.00 0.00 0.00 0.00 0.00 0.00 0.00 0.00 0.00 0.00 0.00 0.00 0.00 0.00 0.00 0.00 0.00 0.00 0.00 0.00 0.00 0.00 0.00
0.02 0.02 0.03 0.02 0.02 0.04 0.05 0.02 0.01 0.01 0.01 0.01 0.01 0.01 0.02 0.02 0.02 0.01 0.01 0.05 0.14 0.09 0.00 0.00 0.00 0.00 0.00 0.00 0.00 0.00 0.00 0.00 0.00 0.00 0.00 0.00 0.00 0.00 0.00 0.00 0.00 0.00 0.00 0.00 0.00 0.00 0.00
0.04 0.03 0.03 0.03 0.02 0.02 0.02 0.02 0.02 0.03 0.03 0.03 0.04 0.04 0.02 0.02 0.01 0.00 0.10 0.14 0.23 0.01 0.00 0.00 0.00 0.00 0.00 0.00 0.00 0.00 0.00 0.00 0.00 0.00 0.00 0.00 0.00 0.00 0.00 0.00 0.00 0.00 0.00 0.00 0.00 0.00 0.00
0.04 0.04 0.04 0.04 0.03 0.02 0.03 0.03 0.02 0.03 0.05 0.05 0.06 0.05 0.05 0.02 0.01 0.01 0.26 0.38 0.08 0.00 0.00 0.00 0.00 0.00 0.00 0.00 0.00 0.00 0.00 0.00 0.00 0.00 0.00 0.00 0.00 0.00 0.00 0.00 0.00 0.00 0.00 0.00 0.00 0.00 0.00
0.06 0.06 0.05 0.04 0.03 0.03 0.03 0.03 0.04 0.05 0.08 0.06 0.05 0.07 0.04 0.02 0.03 0.13 0.32 0.12 0.00 0.00 0.00 0.00 0.00 0.00 0.00 0.00 0.00 0.00 0.00 0.00 0.00 0.00 0.00 0.00 0.00 0.00 0.00 0.00 0.00 0.00 0.00 0.00 0.00 0.00 0.00
0.08 0.07 0.07 0.06 0.05 0.04 0.05 0.05 0.06 0.10 0.16 0.11 0.10 0.10 0.04 0.04 0.13 0.40 0.30 0.07 0.00 0.00 0.00 0.00 0.00 0.00 0.00 0.00 0.00 0.00 0.00 0.00 0.00 0.00 0.00 0.00 0.00 0.00 0.00 0.00 0.00 0.00 0.00 0.00 0.00 0.01 0.03
0.07 0.09 0.08 0.08 0.07 0.07 0.07 0.08 0.09 0.11 0.29 0.32 0.21 0.13 0.10 0.06 0.24 0.28 0.16 0.02 0.01 0.00 0.00 0.00 0.00 0.00 0.00 0.00 0.00 0.00 0.00 0.00 0.00 0.00 0.00 0.00 0.00 0.00 0.00 0.00 0.00 0.00 0.00 0.00 0.02 0.02 0.07
0.07 0.08 0.10 0.08 0.07 0.06 0.08 0.09 0.08 0.14 0.38 0.37 0.42 0.17 0.20 0.23 0.17 0.07 0.04 0.02 0.02 0.01 0.02 0.02 0.00 0.01 0.00 0.00 0.02 0.00 0.00 0.00 0.00 0.01 0.01 0.00 0.01 0.00 0.00 0.00 0.01 0.00 0.00 0.01 0.01 0.02 0.02
0.10 0.08 0.09 0.15 0.11 0.09 0.10 0.10 0.12 0.16 0.32 0.64 0.69 0.42 0.31 0.74 0.20 0.01 0.03 0.04 0.04 0.01 0.01 0.01 0.02 0.02 0.03 0.02 0.05 0.04 0.01 0.01 0.00 0.00 0.00 0.03 0.09 0.04 0.01 0.00 0.01 0.01 0.00 0.01 0.03 0.07 0.01
0.17 0.14 0.10 0.11 0.20 0.15 0.14 0.14 0.14 0.23 0.30 0.69 1.14 0.70 0.22 0.32 0.37 0.09 0.07 0.04 0.03 0.04 0.02 0.05 0.06 0.02 0.03 0.03 0.04 0.04 0.04 0.02 0.01 0.00 0.00 0.06 0.24 0.06 0.05 0.01 0.00 0.00 0.00 0.00 0.00 0.00 0.01
0.15 0.23 0.17 0.12 0.13 0.25 0.24 0.22 0.17 0.21 0.44 1.11 1.22 0.41 0.28 0.16 0.05 0.08 0.20 0.12 0.04 0.04 0.06 0.08 0.08 0.03 0.07 0.08 0.03 0.02 0.05 0.05 0.02 0.01 0.01 0.01 0.04 0.01 0.03 0.02 0.03 0.05 0.02 0.00 0.00 0.00 0.00
0.20 0.21 0.34 0.23 0.17 0.17 0.32 0.35 0.30 0.29 0.45 1.27 0.95 0.35 0.42 0.35 0.16 0.17 0.14 0.07 0.04 0.08 0.13 0.08 0.09 0.16 0.15 0.08 0.10 0.12 0.08 0.12 0.08 0.06 0.08 0.10 0.07 0.08 0.08 0.00 0.04 0.10 0.03 0.00 0.00 0.00 0.00
0.21 0.21 0.27 0.47 0.27 0.21 0.22 0.39 0.47 0.42 0.49 0.68 0.54 0.30 0.54 0.51 0.31 0.18 0.04 0.04 0.06 0.18 0.16 0.13 0.18 0.18 0.14 0.12 0.22 0.16 0.13 0.09 0.09 0.08 0.08 0.16 0.18 0.24 0.23 0.16 0.28 0.04 0.00 0.00 0.00 0.00 0.00
0.25 0.21 0.23 0.36 0.56 0.33 0.27 0.24 0.48 0.63 0.60 0.62 0.51 0.36 0.60 0.54 0.17 0.09 0.08 0.08 0.08 0.12 0.26 0.13 0.09 0.13 0.17 0.21 0.35 0.34 0.25 0.12 0.04 0.04 0.03 0.04 0.09 0.16 0.16 0.10 0.04 0.01 0.00 0.00 0.00 0.00 0.00
0.39 0.21 0.17 0.22 0.38 0.62 0.36 0.28 0.30 0.56 0.64 0.69 0.62 0.58 0.52 0.56 0.21 0.09 0.15 0.19 0.26 0.25 0.22 0.06 0.01 0.03 0.13 0.26 0.39 0.43 0.27 0.13 0.02 0.02 0.02 0.05 0.07 0.16 0.17 0.09 0.02 0.00 0.00 0.00 0.00 0.01 0.00
0.72 0.31 0.18 0.17 0.19 0.43 0.57 0.44 0.28 0.46 0.64 0.67 0.54 0.46 0.92 0.86 0.15 0.03 0.06 0.09 0.11 0.17 0.25 0.11 0.05 0.05 0.10 0.21 0.29 0.16 0.08 0.05 0.05 0.00 0.01 0.04 0.19 0.25 0.15 0.11 0.02 0.00 0.00 0.00 0.04 0.06 0.00
0.79 0.57 0.26 0.17 0.19 0.21 0.46 0.54 0.46 0.37 0.62 0.79 0.51 0.33 0.61 0.79 0.22 0.03 0.04 0.09 0.09 0.08 0.16 0.12 0.20 0.23 0.26 0.22 0.16 0.12 0.05 0.01 0.02 0.01 0.01 0.01 0.02 0.08 0.16 0.15 0.04 0.00 0.00 0.01 0.03 0.00 0.00
0.55 0.88 0.32 0.22 0.17 0.18 0.30 0.53 0.64 0.44 0.56 0.92 0.78 0.31 0.46 0.62 0.45 0.13 0.04 0.01 0.08 0.07 0.13 0.19 0.18 0.10 0.15 0.24 0.25 0.17 0.09 0.02 0.01 0.01 0.01 0.04 0.02 0.02 0.02 0.02 0.01 0.00 0.00 0.00 0.00 0.00 0.00

GFSGBSN_prec_precacc24_165.txt.gz
Total_Precipitation_Accumulation
0.00 0.00 0.00 0.00 0.00 0.00 0.00 0.00 0.00 0.00 0.00 0.00 0.00 0.00 0.00 0.00 0.00 0.00 0.00 0.00 0.00 0.00 0.00 0.00 0.00 0.00 0.00 0.00 0.00 0.00 0.00 0.00 0.00 0.00 0.00 0.00 0.00 0.00 0.00 0.00 0.00 0.00 0.00 0.00 0.00 0.00 0.00
0.01 0.00 0.00 0.00 0.01 0.00 0.00 0.00 0.00 0.00 0.00 0.00 0.00 0.00 0.00 0.00 0.00 0.00 0.00 0.00 0.00 0.00 0.00 0.00 0.00 0.00 0.00 0.00 0.00 0.00 0.00 0.00 0.00 0.00 0.00 0.00 0.00 0.00 0.00 0.00 0.00 0.00 0.00 0.00 0.00 0.00 0.00
0.22 0.11 0.05 0.02 0.02 0.03 0.02 0.01 0.01 0.01 0.01 0.01 0.00 0.00 0.00 0.00 0.00 0.00 0.00 0.00 0.00 0.00 0.00 0.00 0.00 0.00 0.00 0.00 0.00 0.00 0.00 0.00 0.00 0.00 0.00 0.00 0.00 0.00 0.00 0.00 0.00 0.00 0.00 0.00 0.00 0.00 0.00
0.78 0.56 0.49 0.47 0.41 0.34 0.24 0.15 0.10 0.06 0.03 0.02 0.01 0.00 0.01 0.01 0.00 0.00 0.00 0.00 0.00 0.00 0.00 0.01 0.01 0.00 0.00 0.00 0.00 0.00 0.00 0.00 0.00 0.00 0.00 0.00 0.00 0.00 0.00 0.00 0.00 0.00 0.00 0.00 0.00 0.00 0.00
0.74 0.85 0.84 0.75 0.67 0.66 0.65 0.59 0.48 0.37 0.27 0.17 0.10 0.04 0.02 0.01 0.01 0.01 0.00 0.00 0.00 0.00 0.01 0.01 0.00 0.00 0.00 0.00 0.00 0.00 0.00 0.00 0.00 0.00 0.00 0.00 0.00 0.00 0.00 0.00 0.00 0.00 0.00 0.00 0.00 0.00 0.00
0.27 0.30 0.36 0.45 0.49 0.50 0.47 0.43 0.37 0.29 0.23 0.16 0.08 0.03 0.01 0.01 0.02 0.02 0.01 0.00 0.00 0.00 0.00 0.00 0.00 0.00 0.00 0.00 0.00 0.00 0.00 0.00 0.00 0.00 0.00 0.00 0.00 0.00 0.00 0.00 0.00 0.00 0.00 0.00 0.00 0.00 0.00
0.14 0.16 0.18 0.20 0.21 0.21 0.20 0.19 0.19 0.18 0.17 0.10 0.03 0.00 0.00 0.01 0.03 0.03 0.01 0.00 0.00 0.00 0.00 0.00 0.00 0.00 0.00 0.00 0.00 0.00 0.00 0.00 0.00 0.00 0.00 0.00 0.00 0.00 0.00 0.00 0.00 0.00 0.00 0.00 0.00 0.00 0.00
0.20 0.12 0.10 0.10 0.12 0.13 0.14 0.15 0.15 0.16 0.17 0.17 0.12 0.05 0.03 0.02 0.01 0.01 0.00 0.00 0.00 0.00 0.00 0.00 0.00 0.00 0.00 0.00 0.00 0.00 0.00 0.00 0.00 0.00 0.00 0.00 0.00 0.00 0.00 0.00 0.00 0.00 0.00 0.00 0.00 0.00 0.00
0.43 0.33 0.22 0.15 0.12 0.09 0.09 0.08 0.10 0.12 0.12 0.10 0.09 0.06 0.04 0.03 0.03 0.01 0.00 0.01 0.00 0.00 0.00 0.00 0.00 0.00 0.00 0.00 0.00 0.00 0.00 0.00 0.00 0.00 0.00 0.00 0.00 0.00 0.00 0.00 0.00 0.00 0.00 0.00 0.00 0.00 0.00
0.25 0.29 0.33 0.34 0.31 0.28 0.20 0.14 0.12 0.12 0.13 0.13 0.08 0.05 0.04 0.05 0.05 0.02 0.04 0.03 0.01 0.00 0.00 0.00 0.00 0.00 0.00 0.00 0.00 0.00 0.00 0.00 0.00 0.00 0.00 0.00 0.00 0.00 0.00 0.00 0.00 0.00 0.00 0.00 0.00 0.00 0.00
0.11 0.11 0.15 0.16 0.18 0.22 0.16 0.09 0.07 0.07 0.08 0.06 0.04 0.04 0.03 0.02 0.06 0.06 0.05 0.03 0.01 0.01 0.04 0.00 0.00 0.00 0.00 0.00 0.00 0.00 0.00 0.00 0.00 0.00 0.00 0.00 0.00 0.00 0.00 0.00 0.00 0.00 0.00 0.00 0.00 0.00 0.00
0.09 0.10 0.12 0.15 0.12 0.09 0.08 0.08 0.04 0.02 0.02 0.02 0.01 0.01 0.02 0.02 0.02 0.04 0.01 0.02 0.04 0.12 0.06 0.00 0.00 0.00 0.00 0.00 0.00 0.00 0.00 0.00 0.00 0.00 0.00 0.00 0.00 0.00 0.00 0.00 0.00 0.00 0.00 0.00 0.00 0.00 0.00
0.04 0.04 0.05 0.06 0.07 0.08 0.09 0.08 0.05 0.04 0.03 0.02 0.03 0.01 0.01 0.02 0.02 0.01 0.02 0.09 0.28 0.18 0.00 0.00 0.00 0.00 0.00 0.00 0.00 0.00 0.00 0.00 0.00 0.00 0.00 0.00 0.00 0.00 0.00 0.00 0.00 0.00 0.00 0.00 0.00 0.00 0.00
0.03 0.03 0.03 0.02 0.02 0.02 0.02 0.04 0.04 0.06 0.05 0.03 0.04 0.03 0.01 0.01 0.01 0.00 0.12 0.25 0.39 0.02 0.00 0.00 0.00 0.00 0.00 0.00 0.00 0.00 0.00 0.00 0.00 0.00 0.00 0.00 0.00 0.00 0.00 0.00 0.00 0.00 0.00 0.00 0.00 0.00 0.00
0.04 0.04 0.04 0.04 0.03 0.02 0.02 0.03 0.02 0.04 0.07 0.12 0.13 0.05 0.03 0.01 0.01 0.01 0.28 0.47 0.11 0.00 0.00 0.00 0.00 0.00 0.00 0.00 0.00 0.00 0.00 0.00 0.00 0.00 0.00 0.00 0.00 0.00 0.00 0.00 0.00 0.00 0.00 0.00 0.01 0.00 0.02
0.04 0.05 0.05 0.04 0.03 0.03 0.03 0.03 0.04 0.04 0.08 0.13 0.16 0.19 0.08 0.02 0.03 0.13 0.32 0.13 0.00 0.00 0.00 0.00 0.00 0.00 0.00 0.00 0.00 0.00 0.00 0.00 0.00 0.00 0.00 0.00 0.00 0.00 0.00 0.00 0.00 0.00 0.00 0.00 0.00 0.00 0.01
0.06 0.05 0.06 0.07 0.06 0.04 0.05 0.05 0.05 0.08 0.16 0.15 0.14 0.14 0.05 0.02 0.12 0.41 0.31 0.06 0.00 0.00 0.00 0.00 0.00 0.00 0.00 0.00 0.00 0.00 0.00 0.00 0.00 0.00 0.00 0.00 0.00 0.00 0.00 0.00 0.00 0.00 0.00 0.00 0.00 0.00 0.01
0.04 0.06 0.07 0.06 0.06 0.07 0.06 0.08 0.08 0.11 0.31 0.37 0.27 0.17 0.10 0.05 0.23 0.37 0.17 0.02 0.01 0.00 0.00 0.00 0.00 0.00 0.00 0.00 0.01 0.01 0.00 0.00 0.00 0.00 0.00 0.01 0.02 0.00 0.00 0.00 0.00 0.00 0.00 0.00 0.02 0.02 0.04
0.03 0.05 0.07 0.07 0.06 0.06 0.06 0.07 0.07 0.13 0.42 0.41 0.47 0.21 0.22 0.27 0.23 0.09 0.05 0.02 0.02 0.01 0.02 0.02 0.00 0.01 0.00 0.00 0.03 0.00 0.00 0.00 0.00 0.01 0.02 0.03 0.12 0.06 0.00 0.00 0.01 0.00 0.00 0.01 0.01 0.02 0.03
0.07 0.05 0.07 0.13 0.10 0.08 0.08 0.09 0.10 0.14 0.31 0.71 0.75 0.47 0.40 0.92 0.30 0.02 0.03 0.04 0.04 0.01 0.01 0.01 0.02 0.02 0.03 0.03 0.06 0.06 0.01 0.01 0.00 0.01 0.03 0.11 0.24 0.11 0.04 0.00 0.01 0.01 0.00 0.00 0.02 0.06 0.02
0.10 0.11 0.08 0.10 0.19 0.15 0.13 0.12 0.13 0.19 0.29 0.77 1.24 0.75 0.24 0.41 0.49 0.17 0.09 0.05 0.03 0.04 0.02 0.05 0.06 0.02 0.04 0.04 0.04 0.05 0.04 0.02 0.01 0.01 0.01 0.12 0.38 0.12 0.10 0.03 0.00 0.01 0.00 0.00 0.00 0.01 0.01
0.10 0.15 0.14 0.10 0.11 0.24 0.24 0.20 0.16 0.19 0.42 1.13 1.33 0.47 0.32 0.18 0.06 0.14 0.33 0.20 0.04 0.04 0.07 0.08 0.09 0.03 0.10 0.10 0.04 0.03 0.06 0.05 0.02 0.02 0.02 0.05 0.13 0.06 0.06 0.02 0.03 0.06 0.02 0.00 0.00 0.00 0.00
0.13 0.16 0.25 0.18 0.15 0.16 0.32 0.33 0.27 0.26 0.43 1.21 0.95 0.40 0.51 0.44 0.21 0.23 0.18 0.11 0.05 0.09 0.16 0.08 0.09 0.18 0.16 0.08 0.10 0.12 0.09 0.12 0.08 0.07 0.09 0.12 0.12 0.13 0.13 0.00 0.05 0.16 0.04 0.00 0.00 0.00 0.00
0.19 0.15 0.19 0.37 0.22 0.17 0.21 0.38 0.46 0.39 0.48 0.62 0.48 0.31 0.57 0.58 0.36 0.25 0.09 0.08 0.09 0.20 0.19 0.14 0.19 0.22 0.15 0.13 0.23 0.16 0.13 0.09 0.09 0.08 0.09 0.17 0.19 0.28 0.28 0.18 0.37 0.06 0.00 0.00 0.00 0.00 0.00
0.25 0.18 0.20 0.27 0.47 0.27 0.23 0.22 0.47 0.62 0.58 0.62 0.41 0.31 0.60 0.56 0.18 0.10 0.08 0.09 0.09 0.14 0.31 0.17 0.11 0.15 0.18 0.23 0.39 0.36 0.27 0.12 0.04 0.04 0.03 0.04 0.10 0.20 0.23 0.15 0.07 0.01 0.00 0.00 0.00 0.00 0.00
0.36 0.21 0.16 0.23 0.42 0.58 0.35 0.26 0.29 0.55 0.62 0.68 0.61 0.47 0.45 0.55 0.21 0.09 0.16 0.22 0.29 0.26 0.23 0.06 0.01 0.03 0.13 0.28 0.44 0.46 0.29 0.14 0.04 0.02 0.02 0.06 0.08 0.23 0.24 0.15 0.04 0.00 0.00 0.00 0.00 0.01 0.00
0.56 0.30 0.19 0.17 0.21 0.54 0.69 0.46 0.28 0.43 0.62 0.67 0.55 0.45 0.78 0.73 0.14 0.03 0.06 0.10 0.16 0.25 0.36 0.17 0.10 0.09 0.14 0.30 0.36 0.23 0.12 0.08 0.09 0.01 0.01 0.04 0.21 0.31 0.21 0.18 0.04 0.00 0.00 0.00 0.04 0.06 0.00
0.66 0.52 0.25 0.18 0.20 0.23 0.51 0.62 0.47 0.37 0.58 0.72 0.50 0.33 0.60 0.69 0.18 0.03 0.04 0.09 0.09 0.13 0.28 0.24 0.29 0.28 0.32 0.40 0.30 0.14 0.06 0.02 0.03 0.01 0.01 0.01 0.04 0.10 0.21 0.25 0.09 0.00 0.01 0.02 0.03 0.00 0.00
0.52 0.86 0.32 0.23 0.19 0.22 0.33 0.56 0.66 0.45 0.55 0.86 0.66 0.31 0.47 0.62 0.39 0.12 0.04 0.01 0.08 0.07 0.13 0.20 0.21 0.16 0.32 0.47 0.42 0.28 0.17 0.08 0.03 0.01 0.01 0.04 0.03 0.03 0.04 0.04 0.02 0.01 0.01 0.00 0.00 0.00 0.00

GFSGBSN_prec_precacc24_168.txt.gz
Total_Precipitation_Accumulation
0.00 0.00 0.00 0.00 0.00 0.00 0.00 0.00 0.00 0.00 0.00 0.00 0.00 0.00 0.00 0.00 0.00 0.00 0.00 0.00 0.00 0.00 0.00 0.00 0.00 0.00 0.00 0.00 0.00 0.00 0.00 0.00 0.00 0.00 0.00 0.00 0.00 0.00 0.00 0.00 0.00 0.00 0.00 0.00 0.00 0.00 0.00
0.00 0.00 0.00 0.00 0.00 0.00 0.00 0.00 0.00 0.00 0.00 0.00 0.00 0.00 0.00 0.00 0.00 0.00 0.00 0.00 0.00 0.00 0.00 0.00 0.00 0.00 0.00 0.00 0.00 0.00 0.00 0.00 0.00 0.00 0.00 0.00 0.00 0.00 0.00 0.00 0.00 0.00 0.00 0.00 0.00 0.00 0.00
0.15 0.08 0.04 0.01 0.01 0.01 0.01 0.01 0.01 0.01 0.00 0.00 0.00 0.00 0.00 0.01 0.01 0.00 0.00 0.00 0.00 0.00 0.00 0.00 0.00 0.00 0.00 0.00 0.00 0.00 0.00 0.00 0.00 0.00 0.00 0.00 0.00 0.00 0.00 0.00 0.00 0.00 0.00 0.00 0.00 0.00 0.00
0.70 0.47 0.39 0.37 0.32 0.25 0.17 0.12 0.09 0.06 0.03 0.02 0.01 0.00 0.01 0.01 0.00 0.00 0.00 0.00 0.00 0.00 0.00 0.01 0.01 0.00 0.00 0.00 0.00 0.00 0.00 0.00 0.00 0.00 0.00 0.00 0.00 0.00 0.00 0.00 0.00 0.00 0.00 0.00 0.00 0.00 0.00
0.72 0.82 0.77 0.65 0.54 0.55 0.57 0.56 0.48 0.38 0.27 0.17 0.10 0.05 0.02 0.01 0.00 0.00 0.00 0.00 0.00 0.00 0.01 0.01 0.00 0.00 0.00 0.00 0.00 0.00 0.00 0.00 0.00 0.00 0.00 0.00 0.00 0.00 0.00 0.00 0.00 0.00 0.00 0.00 0.00 0.00 0.00
0.33 0.32 0.34 0.40 0.42 0.44 0.44 0.44 0.44 0.41 0.36 0.29 0.17 0.08 0.02 0.00 0.00 0.00 0.00 0.00 0.00 0.00 0.00 0.00 0.00 0.00 0.00 0.00 0.00 0.00 0.00 0.00 0.00 0.00 0.00 0.00 0.00 0.00 0.00 0.00 0.00 0.00 0.00 0.00 0.00 0.00 0.00
0.22 0.23 0.23 0.23 0.19 0.19 0.20 0.20 0.20 0.21 0.22 0.20 0.15 0.09 0.04 0.01 0.00 0.00 0.00 0.00 0.00 0.00 0.00 0.00 0.00 0.00 0.00 0.00 0.00 0.00 0.00 0.00 0.00 0.00 0.00 0.00 0.00 0.00 0.00 0.00 0.00 0.00 0.00 0.00 0.00 0.00 0.00
0.31 0.24 0.18 0.16 0.17 0.18 0.17 0.17 0.17 0.17 0.20 0.20 0.17 0.11 0.06 0.03 0.01 0.00 0.00 0.00 0.00 0.00 0.01 0.00 0.00 0.00 0.00 0.00 0.00 0.00 0.00 0.00 0.00 0.00 0.00 0.00 0.00 0.00 0.00 0.00 0.00 0.00 0.00 0.00 0.00 0.00 0.00
0.52 0.42 0.30 0.23 0.16 0.14 0.13 0.13 0.13 0.15 0.16 0.15 0.14 0.10 0.06 0.03 0.02 0.00 0.01 0.01 0.00 0.00 0.00 0.00 0.00 0.00 0.00 0.00 0.00 0.00 0.00 0.00 0.00 0.00 0.00 0.00 0.00 0.00 0.00 0.00 0.00 0.00 0.00 0.00 0.00 0.00 0.00
0.34 0.35 0.39 0.42 0.42 0.39 0.27 0.19 0.15 0.15 0.16 0.16 0.11 0.08 0.06 0.06 0.06 0.03 0.04 0.03 0.01 0.00 0.00 0.00 0.00 0.00 0.00 0.00 0.00 0.00 0.00 0.00 0.00 0.00 0.00 0.00 0.00 0.00 0.00 0.00 0.00 0.00 0.00 0.00 0.00 0.00 0.00
0.21 0.19 0.22 0.23 0.26 0.32 0.28 0.19 0.14 0.12 0.12 0.10 0.05 0.04 0.02 0.02 0.06 0.07 0.06 0.03 0.01 0.01 0.04 0.00 0.00 0.00 0.00 0.00 0.00 0.00 0.00 0.00 0.00 0.00 0.00 0.00 0.00 0.00 0.00 0.00 0.00 0.00 0.00 0.00 0.00 0.00 0.00
0.12 0.15 0.17 0.19 0.16 0.13 0.11 0.12 0.11 0.05 0.04 0.05 0.02 0.01 0.01 0.02 0.02 0.04 0.01 0.02 0.04 0.15 0.08 0.00 0.00 0.00 0.00 0.00 0.00 0.00 0.00 0.00 0.00 0.00 0.00 0.00 0.00 0.00 0.00 0.00 0.00 0.00 0.00 0.00 0.00 0.00 0.00
0.04 0.05 0.07 0.09 0.13 0.17 0.16 0.11 0.10 0.11 0.05 0.03 0.04 0.02 0.01 0.02 0.02 0.01 0.02 0.14 0.36 0.23 0.00 0.00 0.00 0.00 0.00 0.00 0.00 0.00 0.00 0.00 0.00 0.00 0.00 0.00 0.00 0.00 0.00 0.00 0.00 0.00 0.00 0.00 0.00 0.00 0.00
0.04 0.04 0.03 0.03 0.03 0.06 0.10 0.11 0.11 0.13 0.11 0.10 0.07 0.04 0.01 0.01 0.01 0.01 0.15 0.42 0.54 0.02 0.00 0.00 0.00 0.00 0.00 0.00 0.00 0.00 0.00 0.00 0.00 0.00 0.00 0.00 0.00 0.00 0.00 0.00 0.00 0.00 0.00 0.00 0.00 0.00 0.00
0.03 0.03 0.04 0.04 0.03 0.03 0.04 0.05 0.07 0.10 0.14 0.20 0.24 0.12 0.04 0.00 0.01 0.01 0.31 0.62 0.15 0.00 0.00 0.00 0.00 0.00 0.00 0.00 0.00 0.00 0.00 0.00 0.00 0.00 0.00 0.00 0.00 0.00 0.00 0.00 0.00 0.00 0.00 0.00 0.01 0.00 0.04
0.02 0.03 0.04 0.05 0.04 0.03 0.03 0.03 0.04 0.06 0.10 0.19 0.29 0.35 0.16 0.04 0.05 0.13 0.34 0.14 0.00 0.00 0.00 0.00 0.00 0.00 0.00 0.00 0.00 0.00 0.00 0.00 0.00 0.00 0.00 0.00 0.00 0.00 0.00 0.00 0.00 0.00 0.00 0.00 0.02 0.02 0.03
0.04 0.05 0.05 0.06 0.06 0.06 0.06 0.05 0.05 0.07 0.17 0.20 0.19 0.33 0.14 0.07 0.29 0.53 0.35 0.07 0.00 0.00 0.00 0.00 0.00 0.00 0.00 0.00 0.00 0.00 0.00 0.00 0.00 0.00 0.00 0.00 0.00 0.00 0.00 0.00 0.00 0.00 0.00 0.00 0.00 0.00 0.01
0.02 0.03 0.05 0.05 0.06 0.07 0.08 0.08 0.08 0.09 0.30 0.43 0.30 0.20 0.12 0.07 0.39 0.56 0.20 0.02 0.01 0.00 0.00 0.00 0.00 0.01 0.01 0.01 0.03 0.02 0.00 0.00 0.00 0.00 0.00 0.01 0.03 0.00 0.00 0.00 0.00 0.00 0.00 0.00 0.01 0.01 0.03
0.01 0.01 0.02 0.04 0.04 0.05 0.06 0.06 0.06 0.12 0.41 0.47 0.52 0.24 0.24 0.30 0.23 0.12 0.04 0.02 0.02 0.01 0.02 0.02 0.01 0.01 0.01 0.01 0.04 0.01 0.00 0.00 0.00 0.01 0.03 0.05 0.17 0.08 0.01 0.00 0.00 0.00 0.00 0.00 0.00 0.01 0.02
0.03 0.02 0.02 0.03 0.05 0.06 0.07 0.08 0.09 0.12 0.30 0.78 0.80 0.52 0.46 1.11 0.37 0.03 0.03 0.03 0.04 0.01 0.01 0.01 0.02 0.02 0.03 0.03 0.07 0.06 0.01 0.01 0.01 0.01 0.03 0.16 0.33 0.16 0.07 0.01 0.02 0.02 0.00 0.00 0.02 0.09 0.02
0.06 0.05 0.05 0.03 0.06 0.10 0.11 0.10 0.13 0.17 0.28 0.82 1.34 0.79 0.27 0.47 0.66 0.25 0.12 0.06 0.04 0.04 0.03 0.06 0.07 0.02 0.04 0.04 0.04 0.05 0.04 0.02 0.01 0.01 0.01 0.14 0.42 0.14 0.11 0.04 0.02 0.04 0.01 0.00 0.00 0.02 0.04
0.08 0.07 0.09 0.09 0.08 0.16 0.19 0.18 0.15 0.17 0.40 1.15 1.41 0.56 0.35 0.19 0.07 0.20 0.47 0.30 0.05 0.04 0.07 0.09 0.10 0.03 0.12 0.12 0.04 0.03 0.07 0.06 0.02 0.02 0.02 0.08 0.17 0.08 0.07 0.02 0.04 0.08 0.03 0.00 0.00 0.00 0.00
0.10 0.09 0.10 0.11 0.14 0.14 0.28 0.32 0.26 0.24 0.42 1.18 0.97 0.42 0.60 0.48 0.23 0.27 0.23 0.16 0.08 0.13 0.24 0.10 0.10 0.20 0.17 0.09 0.13 0.13 0.10 0.12 0.08 0.07 0.10 0.13 0.15 0.17 0.16 0.00 0.06 0.20 0.05 0.00 0.00 0.00 0.00
0.20 0.16 0.11 0.12 0.15 0.17 0.20 0.36 0.43 0.37 0.46 0.58 0.48 0.35 0.63 0.69 0.50 0.36 0.17 0.12 0.13 0.30 0.28 0.16 0.21 0.25 0.17 0.15 0.25 0.17 0.13 0.09 0.09 0.08 0.09 0.18 0.20 0.33 0.31 0.19 0.43 0.07 0.00 0.00 0.00 0.00 0.00
0.18 0.19 0.21 0.18 0.24 0.25 0.24 0.21 0.45 0.59 0.55 0.61 0.39 0.32 0.62 0.56 0.20 0.14 0.13 0.13 0.10 0.15 0.33 0.18 0.11 0.16 0.22 0.30 0.52 0.42 0.27 0.13 0.04 0.04 0.03 0.04 0.11 0.23 0.23 0.16 0.08 0.01 0.00 0.00 0.00 0.00 0.00
0.14 0.14 0.15 0.21 0.37 0.47 0.32 0.24 0.28 0.53 0.60 0.66 0.60 0.44 0.44 0.55 0.21 0.09 0.16 0.22 0.29 0.27 0.23 0.06 0.02 0.04 0.14 0.30 0.49 0.52 0.30 0.15 0.05 0.03 0.03 0.07 0.11 0.30 0.27 0.19 0.06 0.00 0.00 0.00 0.00 0.01 0.00
0.14 0.13 0.16 0.13 0.15 0.49 0.72 0.47 0.26 0.42 0.60 0.61 0.53 0.43 0.69 0.69 0.13 0.03 0.06 0.10 0.16 0.26 0.40 0.27 0.17 0.13 0.20 0.34 0.41 0.24 0.13 0.09 0.10 0.02 0.03 0.08 0.24 0.41 0.31 0.31 0.09 0.00 0.00 0.00 0.02 0.05 0.00
0.13 0.17 0.22 0.16 0.14 0.17 0.47 0.85 0.61 0.36 0.57 0.70 0.47 0.33 0.57 0.63 0.16 0.03 0.04 0.09 0.09 0.13 0.28 0.31 0.32 0.36 0.55 0.56 0.42 0.28 0.16 0.07 0.04 0.01 0.02 0.03 0.08 0.12 0.25 0.29 0.11 0.00 0.01 0.01 0.02 0.01 0.00
0.19 0.33 0.21 0.22 0.15 0.17 0.25 0.48 0.74 0.55 0.56 0.84 0.62 0.32 0.49 0.61 0.34 0.11 0.04 0.01 0.08 0.07 0.13 0.20 0.21 0.16 0.41 0.61 0.54 0.44 0.38 0.24 0.08 0.03 0.01 0.05 0.04 0.05 0.06 0.09 0.04 0.01 0.01 0.01 0.01 0.01 0.00

GFSGBSN_prec_precacc24_171.txt.gz
Total_Precipitation_Accumulation
0.00 0.00 0.00 0.00 0.00 0.00 0.00 0.00 0.00 0.00 0.00 0.00 0.00 0.00 0.00 0.00 0.00 0.00 0.00 0.00 0.00 0.00 0.00 0.00 0.00 0.00 0.00 0.00 0.00 0.00 0.00 0.00 0.00 0.00 0.00 0.00 0.00 0.00 0.00 0.00 0.00 0.00 0.00 0.00 0.00 0.00 0.00
0.00 0.00 0.00 0.00 0.00 0.00 0.00 0.00 0.00 0.00 0.00 0.00 0.00 0.00 0.00 0.00 0.00 0.00 0.00 0.00 0.00 0.00 0.00 0.00 0.00 0.00 0.00 0.00 0.00 0.00 0.00 0.00 0.00 0.00 0.00 0.00 0.00 0.00 0.00 0.00 0.00 0.00 0.00 0.00 0.00 0.00 0.00
0.10 0.03 0.01 0.01 0.00 0.00 0.00 0.01 0.00 0.01 0.00 0.00 0.00 0.00 0.00 0.00 0.01 0.00 0.00 0.00 0.00 0.00 0.00 0.00 0.00 0.00 0.00 0.00 0.00 0.00 0.00 0.00 0.00 0.00 0.00 0.00 0.00 0.00 0.00 0.00 0.00 0.00 0.00 0.00 0.00 0.00 0.00
0.67 0.43 0.28 0.22 0.15 0.16 0.13 0.07 0.04 0.03 0.02 0.02 0.01 0.00 0.01 0.01 0.00 0.00 0.00 0.00 0.00 0.00 0.00 0.01 0.01 0.00 0.00 0.00 0.00 0.00 0.00 0.00 0.00 0.00 0.00 0.00 0.00 0.00 0.00 0.00 0.00 0.00 0.00 0.00 0.00 0.00 0.00
0.69 0.78 0.73 0.61 0.48 0.47 0.48 0.44 0.39 0.33 0.26 0.17 0.10 0.05 0.02 0.01 0.00 0.00 0.00 0.00 0.00 0.00 0.01 0.01 0.00 0.00 0.00 0.00 0.00 0.00 0.00 0.00 0.00 0.00 0.00 0.00 0.00 0.00 0.00 0.00 0.00 0.00 0.00 0.00 0.00 0.00 0.00
0.42 0.39 0.37 0.45 0.45 0.45 0.43 0.41 0.41 0.39 0.36 0.30 0.20 0.11 0.05 0.02 0.00 0.00 0.00 0.00 0.00 0.00 0.00 0.00 0.00 0.00 0.00 0.00 0.00 0.00 0.00 0.00 0.00 0.00 0.00 0.00 0.00 0.00 0.00 0.00 0.00 0.00 0.00 0.00 0.00 0.00 0.00
0.34 0.37 0.34 0.31 0.27 0.25 0.24 0.23 0.22 0.21 0.21 0.20 0.17 0.12 0.07 0.03 0.00 0.00 0.00 0.00 0.00 0.00 0.00 0.00 0.00 0.00 0.00 0.00 0.00 0.00 0.00 0.00 0.00 0.00 0.00 0.00 0.00 0.00 0.00 0.00 0.00 0.00 0.00 0.00 0.00 0.00 0.00
0.40 0.35 0.29 0.23 0.21 0.22 0.22 0.23 0.23 0.21 0.22 0.21 0.18 0.12 0.07 0.03 0.01 0.00 0.00 0.00 0.00 0.00 0.01 0.00 0.00 0.00 0.00 0.00 0.00 0.00 0.00 0.00 0.00 0.00 0.00 0.00 0.00 0.00 0.00 0.00 0.00 0.00 0.00 0.00 0.00 0.00 0.00
0.58 0.49 0.38 0.30 0.22 0.18 0.17 0.17 0.18 0.20 0.19 0.18 0.16 0.11 0.07 0.03 0.01 0.00 0.00 0.01 0.00 0.00 0.00 0.00 0.00 0.00 0.00 0.00 0.00 0.00 0.00 0.00 0.00 0.00 0.00 0.00 0.00 0.00 0.00 0.00 0.00 0.00 0.00 0.00 0.00 0.00 0.00
0.44 0.42 0.44 0.46 0.46 0.43 0.33 0.24 0.19 0.18 0.19 0.19 0.13 0.09 0.06 0.04 0.05 0.02 0.04 0.03 0.01 0.00 0.00 0.00 0.00 0.00 0.00 0.00 0.00 0.00 0.00 0.00 0.00 0.00 0.00 0.00 0.00 0.00 0.00 0.00 0.00 0.00 0.00 0.00 0.00 0.00 0.00
0.35 0.33 0.30 0.29 0.34 0.41 0.40 0.34 0.26 0.21 0.19 0.16 0.09 0.06 0.03 0.02 0.05 0.07 0.06 0.03 0.01 0.01 0.05 0.00 0.00 0.00 0.00 0.00 0.00 0.00 0.00 0.00 0.00 0.00 0.00 0.00 0.00 0.00 0.00 0.00 0.00 0.00 0.00 0.00 0.00 0.00 0.00
0.16 0.23 0.29 0.28 0.22 0.17 0.16 0.17 0.20 0.14 0.09 0.09 0.04 0.02 0.01 0.01 0.01 0.04 0.01 0.02 0.06 0.22 0.12 0.00 0.00 0.00 0.00 0.00 0.00 0.00 0.00 0.00 0.00 0.00 0.00 0.00 0.00 0.00 0.00 0.00 0.00 0.00 0.00 0.00 0.00 0.00 0.00
0.04 0.06 0.08 0.13 0.17 0.22 0.25 0.25 0.20 0.26 0.19 0.08 0.09 0.04 0.01 0.02 0.02 0.01 0.02 0.17 0.48 0.33 0.00 0.00 0.00 0.00 0.00 0.00 0.00 0.00 0.00 0.00 0.00 0.00 0.00 0.00 0.00 0.00 0.00 0.00 0.00 0.00 0.00 0.00 0.00 0.00 0.00
0.03 0.03 0.03 0.03 0.04 0.08 0.18 0.26 0.24 0.26 0.28 0.30 0.18 0.08 0.01 0.01 0.01 0.01 0.16 0.53 0.71 0.04 0.00 0.00 0.00 0.00 0.00 0.00 0.00 0.00 0.00 0.00 0.00 0.00 0.00 0.00 0.00 0.00 0.00 0.00 0.00 0.00 0.00 0.00 0.00 0.00 0.00
0.03 0.03 0.02 0.03 0.03 0.03 0.06 0.13 0.21 0.24 0.28 0.34 0.49 0.30 0.09 0.01 0.02 0.02 0.32 0.74 0.19 0.00 0.00 0.00 0.00 0.00 0.00 0.00 0.00 0.00 0.00 0.00 0.00 0.00 0.00 0.00 0.00 0.00 0.00 0.00 0.00 0.00 0.00 0.00 0.02 0.01 0.04
0.03 0.04 0.04 0.03 0.03 0.03 0.03 0.04 0.08 0.14 0.22 0.35 0.47 0.56 0.32 0.06 0.06 0.16 0.39 0.18 0.00 0.00 0.00 0.00 0.00 0.00 0.00 0.00 0.00 0.00 0.00 0.00 0.00 0.00 0.00 0.00 0.00 0.00 0.00 0.00 0.00 0.00 0.00 0.01 0.08 0.11 0.05
0.04 0.04 0.05 0.05 0.05 0.05 0.05 0.06 0.06 0.09 0.20 0.30 0.38 0.56 0.25 0.11 0.37 0.70 0.39 0.06 0.00 0.00 0.00 0.01 0.01 0.03 0.01 0.01 0.01 0.00 0.00 0.00 0.00 0.00 0.00 0.00 0.00 0.00 0.00 0.00 0.00 0.00 0.00 0.00 0.01 0.02 0.04
0.02 0.03 0.04 0.03 0.04 0.05 0.07 0.08 0.08 0.09 0.28 0.45 0.38 0.33 0.19 0.12 0.64 0.79 0.31 0.01 0.00 0.00 0.00 0.00 0.01 0.04 0.05 0.04 0.05 0.03 0.01 0.03 0.01 0.00 0.00 0.01 0.04 0.00 0.00 0.00 0.00 0.00 0.00 0.00 0.03 0.04 0.03
0.02 0.02 0.01 0.01 0.02 0.03 0.05 0.06 0.06 0.11 0.39 0.52 0.57 0.29 0.28 0.35 0.46 0.32 0.10 0.03 0.03 0.01 0.02 0.02 0.01 0.01 0.02 0.02 0.09 0.02 0.00 0.00 0.01 0.02 0.04 0.07 0.18 0.09 0.01 0.00 0.01 0.00 0.00 0.00 0.00 0.02 0.05
0.05 0.04 0.02 0.01 0.01 0.02 0.03 0.06 0.08 0.10 0.28 0.79 0.86 0.57 0.48 1.21 0.42 0.07 0.05 0.08 0.10 0.02 0.01 0.01 0.02 0.02 0.04 0.03 0.08 0.08 0.01 0.01 0.01 0.01 0.05 0.17 0.37 0.17 0.07 0.01 0.07 0.07 0.01 0.01 0.06 0.16 0.05
0.09 0.07 0.04 0.03 0.02 0.02 0.04 0.07 0.13 0.16 0.27 0.83 1.40 0.87 0.32 0.51 0.75 0.29 0.12 0.09 0.05 0.06 0.05 0.07 0.09 0.03 0.04 0.05 0.05 0.05 0.04 0.02 0.01 0.01 0.02 0.18 0.49 0.15 0.11 0.04 0.02 0.04 0.01 0.00 0.01 0.04 0.10
0.10 0.09 0.07 0.05 0.04 0.02 0.03 0.08 0.14 0.17 0.36 1.09 1.45 0.61 0.40 0.24 0.11 0.26 0.53 0.38 0.08 0.06 0.11 0.12 0.11 0.04 0.13 0.13 0.05 0.03 0.07 0.06 0.03 0.02 0.02 0.08 0.18 0.08 0.08 0.02 0.04 0.08 0.03 0.00 0.00 0.00 0.00
0.12 0.11 0.11 0.07 0.05 0.03 0.06 0.08 0.17 0.23 0.38 1.03 1.00 0.48 0.69 0.52 0.25 0.31 0.27 0.18 0.11 0.15 0.29 0.13 0.15 0.23 0.20 0.12 0.15 0.15 0.11 0.13 0.09 0.07 0.11 0.16 0.19 0.20 0.18 0.00 0.08 0.24 0.05 0.00 0.00 0.00 0.00
0.22 0.18 0.13 0.12 0.08 0.05 0.08 0.15 0.26 0.31 0.44 0.57 0.52 0.43 0.71 0.79 0.59 0.42 0.20 0.15 0.18 0.32 0.37 0.23 0.28 0.34 0.23 0.19 0.25 0.17 0.13 0.10 0.09 0.08 0.10 0.19 0.22 0.35 0.33 0.20 0.47 0.07 0.00 0.00 0.00 0.00 0.00
0.18 0.22 0.25 0.21 0.15 0.12 0.12 0.14 0.27 0.45 0.52 0.59 0.39 0.37 0.68 0.58 0.24 0.20 0.20 0.18 0.13 0.21 0.42 0.24 0.12 0.17 0.26 0.34 0.55 0.46 0.31 0.16 0.05 0.04 0.04 0.05 0.14 0.28 0.28 0.18 0.09 0.01 0.00 0.00 0.00 0.00 0.00
0.11 0.12 0.14 0.22 0.28 0.21 0.18 0.21 0.18 0.40 0.56 0.63 0.58 0.43 0.45 0.56 0.21 0.09 0.18 0.24 0.30 0.28 0.26 0.10 0.04 0.05 0.17 0.32 0.53 0.55 0.34 0.20 0.08 0.06 0.04 0.10 0.14 0.36 0.31 0.23 0.07 0.00 0.00 0.02 0.02 0.02 0.00
0.12 0.11 0.11 0.11 0.13 0.29 0.42 0.40 0.26 0.33 0.56 0.61 0.49 0.42 0.67 0.66 0.12 0.03 0.05 0.10 0.16 0.26 0.41 0.29 0.19 0.15 0.26 0.41 0.44 0.25 0.14 0.10 0.12 0.04 0.07 0.16 0.33 0.49 0.38 0.45 0.21 0.01 0.00 0.01 0.03 0.03 0.00
0.14 0.12 0.12 0.11 0.12 0.11 0.20 0.64 0.69 0.36 0.52 0.70 0.48 0.32 0.53 0.57 0.14 0.02 0.03 0.09 0.09 0.13 0.29 0.32 0.33 0.37 0.62 0.82 0.69 0.41 0.24 0.14 0.09 0.04 0.03 0.06 0.13 0.17 0.31 0.34 0.16 0.04 0.05 0.05 0.04 0.01 0.00
0.17 0.16 0.13 0.12 0.12 0.14 0.14 0.22 0.73 0.76 0.58 0.85 0.61 0.34 0.50 0.57 0.31 0.11 0.04 0.01 0.08 0.07 0.13 0.19 0.21 0.16 0.43 0.66 0.63 0.50 0.41 0.27 0.16 0.15 0.08 0.08 0.06 0.09 0.15 0.19 0.10 0.04 0.02 0.01 0.01 0.01 0.01

GFSGBSN_prec_precacc24_174.txt.gz
Total_Precipitation_Accumulation
0.00 0.00 0.00 0.00 0.00 0.00 0.00 0.00 0.00 0.00 0.00 0.00 0.00 0.00 0.00 0.00 0.00 0.00 0.00 0.00 0.00 0.00 0.00 0.00 0.00 0.00 0.00 0.00 0.00 0.00 0.00 0.00 0.00 0.00 0.00 0.00 0.00 0.00 0.00 0.00 0.00 0.00 0.00 0.00 0.00 0.00 0.00
0.00 0.00 0.00 0.00 0.00 0.00 0.00 0.00 0.00 0.00 0.00 0.00 0.00 0.00 0.00 0.00 0.00 0.00 0.00 0.00 0.00 0.00 0.00 0.00 0.00 0.00 0.00 0.00 0.00 0.00 0.00 0.00 0.00 0.00 0.00 0.00 0.00 0.00 0.00 0.00 0.00 0.00 0.00 0.00 0.00 0.00 0.00
0.05 0.02 0.01 0.01 0.00 0.00 0.00 0.00 0.00 0.00 0.00 0.00 0.00 0.00 0.00 0.00 0.01 0.00 0.00 0.00 0.00 0.00 0.00 0.00 0.00 0.00 0.00 0.00 0.00 0.00 0.00 0.00 0.00 0.00 0.00 0.00 0.00 0.00 0.00 0.00 0.00 0.00 0.00 0.00 0.00 0.00 0.00
0.46 0.32 0.24 0.19 0.11 0.06 0.05 0.03 0.03 0.02 0.01 0.01 0.01 0.00 0.01 0.01 0.00 0.00 0.00 0.00 0.00 0.00 0.00 0.01 0.01 0.00 0.00 0.00 0.00 0.00 0.00 0.00 0.00 0.00 0.00 0.00 0.00 0.00 0.00 0.00 0.00 0.00 0.00 0.00 0.00 0.00 0.00
0.60 0.72 0.70 0.59 0.47 0.39 0.31 0.24 0.23 0.27 0.22 0.16 0.09 0.05 0.02 0.01 0.00 0.00 0.00 0.00 0.00 0.00 0.01 0.01 0.00 0.00 0.00 0.00 0.00 0.00 0.00 0.00 0.00 0.00 0.00 0.00 0.00 0.00 0.00 0.00 0.00 0.00 0.00 0.00 0.00 0.00 0.00
0.46 0.42 0.40 0.47 0.46 0.45 0.43 0.40 0.39 0.36 0.33 0.30 0.21 0.12 0.06 0.02 0.00 0.00 0.00 0.00 0.00 0.00 0.00 0.00 0.00 0.00 0.00 0.00 0.00 0.00 0.00 0.00 0.00 0.00 0.00 0.00 0.00 0.00 0.00 0.00 0.00 0.00 0.00 0.00 0.00 0.00 0.00
0.44 0.44 0.43 0.44 0.39 0.35 0.32 0.29 0.26 0.24 0.23 0.22 0.18 0.13 0.08 0.03 0.01 0.00 0.00 0.00 0.00 0.00 0.00 0.00 0.00 0.00 0.00 0.00 0.00 0.00 0.00 0.00 0.00 0.00 0.00 0.00 0.00 0.00 0.00 0.00 0.00 0.00 0.00 0.00 0.00 0.00 0.00
0.49 0.44 0.36 0.31 0.29 0.31 0.32 0.31 0.30 0.27 0.27 0.25 0.20 0.14 0.08 0.03 0.01 0.00 0.00 0.00 0.00 0.00 0.01 0.00 0.00 0.00 0.00 0.00 0.00 0.00 0.00 0.00 0.00 0.00 0.00 0.00 0.00 0.00 0.00 0.00 0.00 0.00 0.00 0.00 0.00 0.00 0.00
0.64 0.56 0.45 0.35 0.27 0.23 0.22 0.22 0.22 0.23 0.23 0.22 0.20 0.15 0.08 0.03 0.01 0.00 0.00 0.00 0.00 0.00 0.00 0.00 0.00 0.00 0.00 0.00 0.00 0.00 0.00 0.00 0.00 0.00 0.00 0.00 0.00 0.00 0.00 0.00 0.00 0.00 0.00 0.00 0.00 0.00 0.00
0.53 0.50 0.52 0.54 0.52 0.47 0.39 0.29 0.23 0.21 0.22 0.22 0.16 0.12 0.08 0.04 0.04 0.02 0.04 0.03 0.01 0.00 0.00 0.00 0.00 0.00 0.00 0.00 0.00 0.00 0.00 0.00 0.00 0.00 0.00 0.00 0.00 0.00 0.00 0.00 0.00 0.00 0.00 0.00 0.00 0.00 0.00
0.41 0.40 0.37 0.34 0.38 0.45 0.45 0.40 0.35 0.31 0.27 0.22 0.14 0.09 0.05 0.03 0.03 0.05 0.06 0.03 0.01 0.02 0.09 0.00 0.00 0.00 0.00 0.00 0.00 0.00 0.00 0.00 0.00 0.00 0.00 0.00 0.00 0.00 0.00 0.00 0.00 0.00 0.00 0.00 0.00 0.00 0.00
0.26 0.33 0.42 0.41 0.30 0.21 0.19 0.22 0.26 0.22 0.16 0.13 0.08 0.05 0.03 0.01 0.02 0.03 0.02 0.03 0.09 0.32 0.18 0.00 0.00 0.00 0.00 0.00 0.00 0.00 0.00 0.00 0.00 0.00 0.00 0.00 0.00 0.00 0.00 0.00 0.00 0.00 0.00 0.00 0.00 0.00 0.00
0.10 0.12 0.16 0.21 0.27 0.30 0.30 0.29 0.28 0.35 0.30 0.18 0.14 0.07 0.04 0.02 0.02 0.02 0.04 0.24 0.64 0.47 0.01 0.00 0.00 0.00 0.00 0.00 0.00 0.00 0.00 0.00 0.00 0.00 0.00 0.00 0.00 0.00 0.00 0.00 0.00 0.00 0.00 0.00 0.01 0.00 0.00
0.07 0.06 0.05 0.05 0.05 0.10 0.20 0.30 0.33 0.33 0.36 0.46 0.38 0.21 0.05 0.01 0.02 0.02 0.20 0.75 0.96 0.07 0.00 0.00 0.00 0.00 0.00 0.00 0.00 0.00 0.00 0.00 0.00 0.00 0.00 0.00 0.00 0.00 0.00 0.00 0.00 0.00 0.00 0.00 0.00 0.00 0.00
0.06 0.05 0.03 0.03 0.03 0.03 0.06 0.15 0.27 0.34 0.39 0.50 0.66 0.54 0.29 0.03 0.05 0.05 0.33 0.93 0.28 0.00 0.00 0.00 0.01 0.00 0.00 0.00 0.00 0.00 0.00 0.00 0.00 0.00 0.00 0.00 0.00 0.00 0.00 0.00 0.00 0.00 0.00 0.00 0.02 0.02 0.04
0.04 0.04 0.04 0.03 0.02 0.02 0.02 0.03 0.09 0.18 0.31 0.52 0.73 0.79 0.54 0.10 0.09 0.21 0.52 0.28 0.01 0.00 0.01 0.00 0.01 0.01 0.00 0.00 0.02 0.00 0.00 0.01 0.00 0.00 0.00 0.00 0.00 0.00 0.00 0.00 0.00 0.00 0.00 0.05 0.22 0.33 0.14
0.05 0.05 0.04 0.04 0.04 0.03 0.03 0.04 0.05 0.09 0.26 0.43 0.63 0.94 0.40 0.20 0.54 0.87 0.58 0.10 0.00 0.00 0.01 0.01 0.01 0.05 0.01 0.01 0.07 0.03 0.04 0.02 0.00 0.00 0.00 0.00 0.00 0.00 0.00 0.00 0.00 0.00 0.00 0.00 0.02 0.08 0.14
0.03 0.04 0.04 0.02 0.03 0.04 0.04 0.05 0.06 0.08 0.28 0.48 0.50 0.61 0.29 0.26 0.97 1.16 0.45 0.02 0.00 0.00 0.01 0.01 0.01 0.06 0.06 0.06 0.06 0.06 0.06 0.12 0.04 0.00 0.00 0.01 0.04 0.00 0.00 0.00 0.00 0.00 0.00 0.00 0.07 0.08 0.05
0.04 0.03 0.02 0.02 0.02 0.03 0.03 0.04 0.06 0.11 0.39 0.54 0.62 0.35 0.33 0.47 0.74 0.55 0.22 0.05 0.03 0.01 0.02 0.04 0.01 0.02 0.02 0.06 0.16 0.05 0.02 0.05 0.07 0.06 0.06 0.09 0.21 0.10 0.01 0.00 0.01 0.01 0.00 0.01 0.02 0.05 0.12
0.07 0.06 0.04 0.03 0.02 0.03 0.03 0.04 0.06 0.10 0.30 0.79 0.88 0.62 0.48 1.27 0.59 0.13 0.13 0.16 0.17 0.09 0.04 0.04 0.04 0.02 0.04 0.04 0.10 0.11 0.02 0.03 0.01 0.02 0.06 0.20 0.40 0.18 0.08 0.01 0.09 0.12 0.04 0.03 0.11 0.25 0.09
0.11 0.08 0.06 0.04 0.03 0.02 0.03 0.03 0.06 0.10 0.26 0.85 1.41 0.88 0.35 0.54 0.78 0.36 0.14 0.16 0.11 0.08 0.08 0.08 0.11 0.03 0.04 0.05 0.05 0.06 0.04 0.02 0.01 0.01 0.02 0.21 0.53 0.15 0.12 0.04 0.02 0.04 0.01 0.00 0.03 0.07 0.13
0.13 0.10 0.09 0.06 0.05 0.04 0.03 0.03 0.04 0.09 0.27 1.02 1.43 0.63 0.41 0.26 0.12 0.29 0.55 0.41 0.11 0.09 0.17 0.18 0.14 0.04 0.13 0.14 0.06 0.04 0.07 0.06 0.03 0.02 0.02 0.09 0.20 0.09 0.08 0.02 0.04 0.08 0.03 0.00 0.00 0.00 0.00
0.17 0.14 0.12 0.09 0.06 0.03 0.03 0.04 0.04 0.09 0.22 0.73 0.95 0.53 0.73 0.52 0.24 0.34 0.37 0.25 0.14 0.16 0.25 0.20 0.28 0.41 0.29 0.15 0.18 0.16 0.11 0.13 0.09 0.07 0.12 0.18 0.23 0.23 0.21 0.01 0.08 0.27 0.05 0.00 0.00 0.00 0.00
0.25 0.24 0.16 0.13 0.10 0.05 0.04 0.05 0.04 0.07 0.20 0.40 0.52 0.49 0.81 0.86 0.62 0.43 0.22 0.20 0.24 0.31 0.37 0.20 0.28 0.35 0.28 0.25 0.27 0.17 0.14 0.10 0.10 0.08 0.10 0.21 0.24 0.40 0.36 0.22 0.49 0.08 0.00 0.00 0.00 0.00 0.00
0.17 0.23 0.30 0.25 0.18 0.13 0.10 0.07 0.05 0.04 0.17 0.39 0.36 0.45 0.81 0.66 0.28 0.31 0.34 0.24 0.15 0.23 0.37 0.22 0.13 0.18 0.29 0.38 0.60 0.50 0.32 0.16 0.05 0.04 0.04 0.05 0.16 0.32 0.32 0.21 0.11 0.01 0.00 0.00 0.01 0.01 0.00
0.11 0.11 0.14 0.24 0.32 0.23 0.14 0.10 0.07 0.05 0.14 0.39 0.47 0.43 0.51 0.62 0.23 0.14 0.30 0.31 0.28 0.21 0.24 0.12 0.10 0.07 0.20 0.36 0.58 0.60 0.36 0.22 0.10 0.07 0.05 0.10 0.16 0.41 0.35 0.27 0.08 0.00 0.00 0.03 0.08 0.10 0.05
0.13 0.11 0.10 0.11 0.14 0.29 0.38 0.20 0.12 0.10 0.18 0.37 0.37 0.42 0.68 0.65 0.11 0.03 0.06 0.10 0.16 0.24 0.39 0.30 0.21 0.16 0.29 0.48 0.53 0.28 0.15 0.11 0.13 0.05 0.10 0.22 0.40 0.58 0.48 0.55 0.26 0.04 0.01 0.02 0.08 0.11 0.05
0.17 0.13 0.12 0.11 0.11 0.11 0.19 0.53 0.46 0.19 0.23 0.44 0.37 0.31 0.54 0.58 0.13 0.02 0.03 0.08 0.09 0.13 0.28 0.31 0.33 0.39 0.64 0.85 0.76 0.52 0.32 0.18 0.10 0.04 0.04 0.07 0.19 0.24 0.37 0.40 0.19 0.08 0.10 0.12 0.08 0.02 0.02
0.23 0.18 0.15 0.13 0.12 0.12 0.13 0.15 0.46 0.59 0.34 0.56 0.54 0.32 0.47 0.59 0.32 0.12 0.03 0.01 0.08 0.07 0.13 0.18 0.21 0.17 0.46 0.68 0.69 0.54 0.43 0.29 0.18 0.16 0.10 0.10 0.08 0.13 0.19 0.27 0.20 0.15 0.05 0.01 0.01 0.01 0.01

GFSGBSN_prec_precacc24_177.txt.gz
Total_Precipitation_Accumulation
0.00 0.00 0.00 0.00 0.00 0.00 0.00 0.00 0.00 0.00 0.00 0.00 0.00 0.00 0.00 0.00 0.00 0.00 0.00 0.00 0.00 0.00 0.00 0.00 0.00 0.00 0.00 0.00 0.00 0.00 0.00 0.00 0.00 0.00 0.00 0.00 0.00 0.00 0.00 0.00 0.00 0.00 0.00 0.00 0.00 0.00 0.00
0.00 0.00 0.00 0.00 0.00 0.00 0.00 0.00 0.00 0.00 0.00 0.00 0.00 0.00 0.00 0.00 0.00 0.00 0.00 0.00 0.00 0.00 0.00 0.00 0.00 0.00 0.00 0.00 0.00 0.00 0.00 0.00 0.00 0.00 0.00 0.00 0.00 0.00 0.00 0.00 0.00 0.00 0.00 0.00 0.00 0.00 0.00
0.02 0.01 0.00 0.00 0.00 0.00 0.00 0.00 0.00 0.00 0.00 0.00 0.00 0.00 0.00 0.00 0.01 0.00 0.00 0.00 0.00 0.00 0.00 0.00 0.00 0.00 0.00 0.00 0.00 0.00 0.00 0.00 0.00 0.00 0.00 0.00 0.00 0.00 0.00 0.00 0.00 0.00 0.00 0.00 0.00 0.00 0.00
0.25 0.13 0.08 0.07 0.05 0.03 0.04 0.03 0.01 0.01 0.01 0.01 0.01 0.00 0.01 0.01 0.00 0.00 0.00 0.00 0.00 0.00 0.00 0.01 0.01 0.00 0.00 0.00 0.00 0.00 0.00 0.00 0.00 0.00 0.00 0.00 0.00 0.00 0.00 0.00 0.00 0.00 0.00 0.00 0.00 0.00 0.00
0.48 0.54 0.49 0.39 0.28 0.19 0.17 0.18 0.17 0.13 0.11 0.09 0.08 0.04 0.02 0.01 0.00 0.00 0.00 0.00 0.00 0.00 0.01 0.01 0.00 0.00 0.00 0.00 0.00 0.00 0.00 0.00 0.00 0.00 0.00 0.00 0.00 0.00 0.00 0.00 0.00 0.00 0.00 0.00 0.00 0.00 0.00
0.47 0.43 0.40 0.44 0.41 0.39 0.38 0.36 0.37 0.35 0.32 0.28 0.20 0.11 0.06 0.02 0.00 0.00 0.00 0.00 0.00 0.00 0.00 0.00 0.00 0.00 0.00 0.00 0.00 0.00 0.00 0.00 0.00 0.00 0.00 0.00 0.00 0.00 0.00 0.00 0.00 0.00 0.00 0.00 0.00 0.00 0.00
0.51 0.49 0.47 0.47 0.43 0.38 0.35 0.32 0.29 0.27 0.25 0.23 0.18 0.14 0.10 0.06 0.03 0.02 0.00 0.00 0.00 0.00 0.00 0.00 0.00 0.00 0.00 0.00 0.00 0.00 0.00 0.00 0.00 0.00 0.00 0.00 0.00 0.00 0.00 0.00 0.00 0.00 0.00 0.00 0.00 0.00 0.00
0.55 0.49 0.41 0.35 0.34 0.35 0.36 0.37 0.37 0.35 0.34 0.30 0.23 0.16 0.12 0.07 0.03 0.02 0.00 0.00 0.00 0.00 0.01 0.00 0.00 0.00 0.00 0.00 0.00 0.00 0.00 0.00 0.00 0.00 0.00 0.00 0.00 0.00 0.00 0.00 0.00 0.00 0.00 0.00 0.00 0.00 0.00
0.71 0.63 0.51 0.39 0.31 0.27 0.25 0.25 0.26 0.26 0.26 0.25 0.24 0.19 0.12 0.06 0.02 0.01 0.00 0.00 0.00 0.00 0.00 0.00 0.00 0.00 0.00 0.00 0.00 0.00 0.00 0.00 0.00 0.00 0.00 0.00 0.00 0.00 0.00 0.00 0.00 0.00 0.00 0.00 0.00 0.00 0.00
0.57 0.54 0.57 0.58 0.54 0.49 0.42 0.33 0.27 0.23 0.24 0.24 0.18 0.15 0.10 0.06 0.04 0.02 0.04 0.03 0.01 0.00 0.00 0.00 0.00 0.00 0.00 0.00 0.00 0.00 0.00 0.00 0.00 0.00 0.00 0.00 0.00 0.00 0.00 0.00 0.00 0.00 0.00 0.00 0.00 0.00 0.00
0.47 0.47 0.46 0.44 0.45 0.48 0.47 0.43 0.39 0.34 0.31 0.25 0.17 0.13 0.08 0.05 0.03 0.04 0.07 0.03 0.02 0.07 0.19 0.00 0.00 0.00 0.00 0.00 0.00 0.00 0.00 0.00 0.00 0.00 0.00 0.00 0.00 0.00 0.00 0.00 0.00 0.00 0.00 0.00 0.00 0.00 0.00
0.34 0.43 0.52 0.53 0.43 0.32 0.26 0.26 0.30 0.25 0.21 0.19 0.13 0.08 0.06 0.04 0.04 0.03 0.03 0.06 0.15 0.49 0.32 0.00 0.00 0.00 0.00 0.00 0.00 0.00 0.00 0.00 0.00 0.00 0.00 0.00 0.00 0.00 0.00 0.00 0.00 0.00 0.00 0.00 0.00 0.01 0.03
0.13 0.18 0.23 0.30 0.38 0.44 0.44 0.38 0.33 0.41 0.41 0.27 0.21 0.13 0.07 0.03 0.03 0.01 0.05 0.37 0.91 0.66 0.02 0.00 0.00 0.00 0.00 0.00 0.00 0.00 0.00 0.00 0.00 0.00 0.00 0.00 0.00 0.00 0.00 0.00 0.00 0.00 0.00 0.00 0.02 0.02 0.04
0.13 0.10 0.07 0.07 0.09 0.15 0.28 0.38 0.40 0.43 0.48 0.57 0.52 0.43 0.23 0.04 0.04 0.03 0.20 0.97 1.24 0.11 0.00 0.00 0.00 0.00 0.00 0.00 0.00 0.00 0.00 0.00 0.00 0.00 0.00 0.00 0.00 0.00 0.00 0.00 0.00 0.00 0.00 0.00 0.01 0.00 0.00
0.12 0.13 0.11 0.07 0.05 0.05 0.08 0.16 0.29 0.37 0.48 0.64 0.86 0.73 0.55 0.17 0.10 0.15 0.39 1.18 0.39 0.00 0.00 0.00 0.01 0.00 0.00 0.00 0.00 0.00 0.00 0.00 0.00 0.01 0.00 0.00 0.00 0.00 0.00 0.00 0.00 0.00 0.00 0.00 0.04 0.04 0.06
0.06 0.08 0.09 0.09 0.06 0.02 0.02 0.02 0.08 0.18 0.31 0.57 0.88 1.01 0.72 0.16 0.19 0.47 0.82 0.48 0.02 0.00 0.01 0.00 0.03 0.02 0.00 0.00 0.03 0.00 0.00 0.01 0.00 0.02 0.00 0.00 0.00 0.00 0.00 0.00 0.00 0.00 0.01 0.11 0.34 0.47 0.24
0.06 0.06 0.06 0.07 0.06 0.03 0.02 0.02 0.02 0.08 0.26 0.45 0.70 1.19 0.50 0.25 0.67 1.14 0.98 0.25 0.00 0.00 0.01 0.02 0.02 0.09 0.02 0.01 0.08 0.04 0.06 0.02 0.00 0.00 0.00 0.00 0.00 0.00 0.00 0.00 0.00 0.00 0.01 0.04 0.11 0.20 0.23
0.04 0.05 0.05 0.04 0.05 0.05 0.04 0.03 0.02 0.06 0.27 0.48 0.52 0.75 0.26 0.32 1.27 1.58 0.71 0.08 0.00 0.00 0.02 0.03 0.02 0.06 0.07 0.06 0.07 0.08 0.07 0.13 0.05 0.01 0.00 0.01 0.05 0.00 0.00 0.00 0.00 0.01 0.04 0.02 0.15 0.18 0.12
0.06 0.04 0.03 0.03 0.03 0.03 0.04 0.04 0.03 0.08 0.34 0.54 0.63 0.37 0.28 0.47 0.95 0.84 0.39 0.09 0.04 0.02 0.03 0.10 0.03 0.02 0.03 0.08 0.18 0.10 0.06 0.07 0.09 0.10 0.09 0.10 0.24 0.11 0.01 0.00 0.01 0.03 0.06 0.06 0.09 0.16 0.18
0.09 0.08 0.05 0.04 0.04 0.04 0.04 0.05 0.05 0.07 0.25 0.74 0.87 0.67 0.49 1.23 0.66 0.19 0.22 0.28 0.25 0.14 0.04 0.07 0.10 0.04 0.05 0.05 0.11 0.13 0.05 0.05 0.02 0.03 0.08 0.22 0.44 0.21 0.08 0.01 0.09 0.12 0.04 0.03 0.14 0.29 0.15
0.13 0.11 0.08 0.05 0.04 0.03 0.03 0.04 0.06 0.08 0.22 0.76 1.22 0.88 0.37 0.55 0.79 0.40 0.19 0.30 0.20 0.15 0.11 0.07 0.14 0.08 0.10 0.12 0.05 0.07 0.04 0.02 0.02 0.01 0.03 0.22 0.54 0.15 0.12 0.04 0.02 0.04 0.01 0.00 0.05 0.09 0.17
0.16 0.13 0.12 0.08 0.06 0.04 0.03 0.04 0.05 0.06 0.21 0.66 1.12 0.55 0.42 0.27 0.14 0.36 0.66 0.52 0.17 0.16 0.30 0.27 0.19 0.05 0.15 0.22 0.14 0.08 0.08 0.07 0.03 0.02 0.03 0.10 0.21 0.09 0.09 0.02 0.04 0.08 0.03 0.00 0.00 0.00 0.00
0.20 0.18 0.16 0.12 0.08 0.04 0.04 0.06 0.06 0.07 0.10 0.30 0.52 0.45 0.71 0.54 0.24 0.38 0.45 0.38 0.27 0.22 0.27 0.22 0.29 0.41 0.33 0.26 0.27 0.21 0.12 0.13 0.09 0.08 0.13 0.19 0.25 0.27 0.23 0.01 0.10 0.29 0.05 0.00 0.00 0.00 0.00
0.27 0.26 0.19 0.17 0.12 0.07 0.05 0.06 0.05 0.06 0.05 0.05 0.32 0.47 0.76 0.79 0.61 0.44 0.27 0.27 0.31 0.39 0.54 0.32 0.26 0.31 0.23 0.31 0.34 0.25 0.22 0.14 0.14 0.09 0.11 0.23 0.26 0.43 0.39 0.22 0.53 0.09 0.00 0.00 0.00 0.00 0.00
0.23 0.24 0.31 0.28 0.22 0.14 0.11 0.08 0.06 0.04 0.05 0.03 0.08 0.44 0.82 0.63 0.29 0.32 0.36 0.30 0.22 0.26 0.32 0.19 0.16 0.24 0.25 0.34 0.56 0.51 0.34 0.19 0.08 0.06 0.04 0.05 0.16 0.32 0.34 0.22 0.11 0.01 0.00 0.00 0.03 0.01 0.00
0.16 0.14 0.14 0.25 0.35 0.25 0.15 0.11 0.08 0.06 0.06 0.11 0.05 0.27 0.53 0.59 0.25 0.19 0.40 0.35 0.27 0.21 0.21 0.27 0.15 0.10 0.15 0.30 0.57 0.59 0.37 0.23 0.11 0.08 0.05 0.10 0.16 0.43 0.36 0.29 0.09 0.00 0.00 0.03 0.09 0.11 0.06
0.19 0.16 0.11 0.11 0.15 0.31 0.39 0.21 0.12 0.10 0.10 0.14 0.08 0.16 0.44 0.55 0.09 0.04 0.07 0.11 0.16 0.20 0.33 0.27 0.21 0.16 0.27 0.46 0.57 0.32 0.16 0.11 0.14 0.06 0.10 0.24 0.45 0.64 0.54 0.65 0.32 0.04 0.01 0.02 0.09 0.13 0.07
0.18 0.19 0.16 0.11 0.10 0.10 0.21 0.54 0.46 0.18 0.13 0.17 0.08 0.12 0.26 0.37 0.08 0.03 0.04 0.06 0.06 0.11 0.22 0.27 0.31 0.40 0.65 0.85 0.77 0.54 0.37 0.21 0.11 0.04 0.03 0.07 0.23 0.31 0.49 0.55 0.26 0.09 0.12 0.15 0.13 0.05 0.02
0.24 0.19 0.22 0.15 0.11 0.11 0.13 0.16 0.47 0.60 0.26 0.27 0.13 0.11 0.24 0.43 0.29 0.14 0.04 0.01 0.02 0.06 0.12 0.18 0.21 0.18 0.47 0.70 0.70 0.55 0.43 0.29 0.18 0.16 0.11 0.11 0.08 0.13 0.22 0.33 0.24 0.18 0.08 0.02 0.01 0.01 0.01

GFSGBSN_prec_precacc24_183.txt.gz
Total_Precipitation_Accumulation
0.00 0.00 0.00 0.00 0.00 0.00 0.00 0.00 0.00 0.00 0.00 0.00 0.00 0.00 0.00 0.00 0.00 0.00 0.00 0.00 0.00 0.00 0.00 0.00 0.00 0.00 0.00 0.00 0.00 0.00 0.00 0.00 0.00 0.00 0.00 0.00 0.00 0.00 0.00 0.00 0.00 0.00 0.00 0.00 0.00 0.00 0.00
0.00 0.00 0.00 0.00 0.00 0.00 0.00 0.00 0.00 0.00 0.00 0.00 0.00 0.00 0.00 0.00 0.00 0.00 0.00 0.00 0.00 0.00 0.00 0.00 0.00 0.00 0.00 0.00 0.00 0.00 0.00 0.00 0.00 0.00 0.00 0.00 0.00 0.00 0.00 0.00 0.00 0.00 0.00 0.00 0.00 0.00 0.00
0.00 0.00 0.00 0.00 0.00 0.00 0.00 0.00 0.00 0.00 0.00 0.00 0.00 0.00 0.00 0.00 0.01 0.00 0.00 0.00 0.00 0.00 0.00 0.00 0.00 0.00 0.00 0.00 0.00 0.00 0.00 0.00 0.00 0.00 0.00 0.00 0.00 0.00 0.00 0.00 0.00 0.00 0.00 0.00 0.00 0.00 0.00
0.06 0.03 0.01 0.00 0.00 0.00 0.00 0.00 0.00 0.00 0.00 0.00 0.00 0.00 0.01 0.01 0.00 0.00 0.00 0.00 0.00 0.00 0.00 0.01 0.01 0.00 0.00 0.00 0.00 0.00 0.00 0.00 0.00 0.00 0.00 0.00 0.00 0.00 0.00 0.00 0.00 0.00 0.00 0.00 0.00 0.00 0.00
0.18 0.26 0.26 0.22 0.15 0.11 0.09 0.06 0.04 0.02 0.01 0.01 0.01 0.01 0.01 0.01 0.00 0.00 0.00 0.00 0.00 0.00 0.01 0.02 0.01 0.00 0.00 0.00 0.00 0.00 0.00 0.00 0.00 0.00 0.00 0.00 0.00 0.00 0.00 0.00 0.00 0.00 0.00 0.00 0.00 0.00 0.00
0.41 0.38 0.36 0.41 0.39 0.38 0.35 0.31 0.28 0.24 0.20 0.17 0.14 0.10 0.05 0.02 0.01 0.00 0.00 0.00 0.00 0.00 0.00 0.00 0.00 0.00 0.00 0.00 0.00 0.00 0.00 0.00 0.00 0.00 0.00 0.00 0.00 0.00 0.00 0.00 0.00 0.00 0.00 0.00 0.00 0.00 0.00
0.48 0.45 0.43 0.42 0.39 0.36 0.34 0.31 0.27 0.24 0.22 0.22 0.19 0.16 0.11 0.07 0.04 0.03 0.01 0.00 0.01 0.00 0.00 0.00 0.00 0.00 0.00 0.00 0.00 0.00 0.00 0.00 0.00 0.00 0.00 0.00 0.00 0.00 0.00 0.00 0.00 0.00 0.00 0.00 0.00 0.00 0.00
0.51 0.47 0.41 0.33 0.31 0.32 0.33 0.34 0.33 0.31 0.27 0.22 0.18 0.15 0.12 0.09 0.06 0.04 0.01 0.01 0.01 0.01 0.01 0.00 0.00 0.00 0.00 0.00 0.00 0.00 0.00 0.00 0.00 0.00 0.00 0.00 0.00 0.00 0.00 0.00 0.00 0.00 0.00 0.00 0.00 0.00 0.00
0.67 0.61 0.51 0.40 0.33 0.30 0.27 0.25 0.24 0.25 0.25 0.25 0.22 0.17 0.11 0.08 0.05 0.03 0.01 0.01 0.01 0.01 0.03 0.00 0.00 0.00 0.00 0.00 0.00 0.00 0.00 0.00 0.00 0.00 0.00 0.00 0.00 0.00 0.00 0.00 0.00 0.00 0.00 0.00 0.00 0.00 0.00
0.58 0.57 0.60 0.60 0.58 0.55 0.47 0.38 0.31 0.26 0.25 0.24 0.19 0.16 0.11 0.07 0.05 0.02 0.05 0.03 0.01 0.02 0.12 0.01 0.00 0.00 0.00 0.00 0.00 0.00 0.00 0.00 0.00 0.00 0.00 0.00 0.00 0.00 0.00 0.00 0.00 0.00 0.00 0.00 0.00 0.00 0.00
0.51 0.51 0.51 0.53 0.56 0.60 0.59 0.54 0.49 0.45 0.38 0.30 0.19 0.14 0.09 0.06 0.03 0.04 0.08 0.04 0.06 0.23 0.61 0.02 0.00 0.00 0.00 0.00 0.00 0.00 0.00 0.00 0.00 0.00 0.00 0.00 0.00 0.00 0.00 0.00 0.00 0.00 0.00 0.00 0.00 0.00 0.00
0.39 0.48 0.57 0.59 0.51 0.43 0.39 0.39 0.42 0.36 0.34 0.33 0.25 0.18 0.14 0.06 0.04 0.03 0.04 0.08 0.32 0.97 0.71 0.00 0.00 0.00 0.00 0.00 0.00 0.00 0.00 0.00 0.00 0.00 0.00 0.00 0.00 0.00 0.00 0.00 0.00 0.00 0.00 0.00 0.00 0.01 0.05
0.19 0.25 0.31 0.38 0.45 0.49 0.49 0.46 0.43 0.52 0.51 0.41 0.34 0.32 0.32 0.10 0.04 0.02 0.12 0.63 1.53 1.20 0.08 0.00 0.00 0.00 0.00 0.00 0.00 0.00 0.00 0.00 0.00 0.00 0.00 0.00 0.00 0.00 0.00 0.00 0.00 0.00 0.00 0.01 0.03 0.04 0.07
0.19 0.18 0.19 0.22 0.22 0.27 0.33 0.41 0.44 0.47 0.56 0.70 0.67 0.59 0.47 0.23 0.10 0.10 0.42 1.62 1.93 0.29 0.00 0.00 0.00 0.00 0.00 0.00 0.00 0.00 0.00 0.00 0.00 0.00 0.00 0.00 0.00 0.00 0.00 0.00 0.00 0.00 0.01 0.01 0.02 0.01 0.00
0.20 0.21 0.21 0.22 0.22 0.18 0.18 0.24 0.32 0.39 0.52 0.75 1.06 0.92 0.72 0.29 0.22 0.50 0.81 1.87 0.82 0.04 0.00 0.00 0.01 0.04 0.02 0.00 0.00 0.00 0.00 0.00 0.00 0.01 0.00 0.00 0.00 0.00 0.00 0.00 0.00 0.00 0.00 0.00 0.07 0.06 0.09
0.11 0.15 0.17 0.18 0.17 0.18 0.18 0.14 0.14 0.23 0.38 0.67 1.00 1.21 0.82 0.19 0.34 1.20 1.79 1.15 0.16 0.00 0.01 0.02 0.05 0.03 0.02 0.00 0.03 0.01 0.02 0.01 0.00 0.02 0.01 0.01 0.00 0.00 0.00 0.00 0.00 0.00 0.02 0.15 0.44 0.66 0.36
0.09 0.10 0.11 0.15 0.17 0.17 0.17 0.18 0.16 0.16 0.28 0.58 0.84 1.31 0.52 0.27 0.87 1.81 2.02 0.81 0.09 0.00 0.01 0.05 0.10 0.12 0.05 0.01 0.08 0.07 0.13 0.03 0.00 0.00 0.01 0.01 0.02 0.00 0.00 0.00 0.01 0.01 0.03 0.13 0.26 0.41 0.42
0.07 0.08 0.09 0.10 0.13 0.16 0.17 0.17 0.18 0.22 0.35 0.52 0.63 0.87 0.26 0.33 1.43 2.18 1.28 0.38 0.10 0.01 0.03 0.06 0.07 0.09 0.09 0.08 0.14 0.14 0.13 0.16 0.06 0.02 0.05 0.08 0.17 0.09 0.02 0.01 0.04 0.07 0.12 0.12 0.31 0.34 0.29
0.08 0.08 0.07 0.06 0.06 0.07 0.09 0.14 0.21 0.31 0.52 0.66 0.76 0.44 0.24 0.48 1.06 0.99 0.59 0.31 0.22 0.18 0.12 0.34 0.24 0.07 0.03 0.09 0.19 0.13 0.18 0.25 0.21 0.21 0.20 0.18 0.35 0.19 0.06 0.08 0.09 0.15 0.24 0.34 0.46 0.50 0.46
0.11 0.10 0.08 0.06 0.06 0.08 0.08 0.09 0.12 0.18 0.35 0.76 0.85 0.68 0.46 1.08 0.66 0.25 0.34 0.46 0.46 0.36 0.23 0.31 0.51 0.32 0.25 0.16 0.10 0.12 0.06 0.09 0.07 0.15 0.28 0.51 0.77 0.40 0.19 0.08 0.14 0.14 0.06 0.05 0.18 0.40 0.24
0.15 0.13 0.11 0.08 0.06 0.06 0.07 0.08 0.10 0.12 0.26 0.82 1.16 0.65 0.28 0.53 0.68 0.42 0.25 0.43 0.29 0.26 0.29 0.18 0.43 0.35 0.35 0.45 0.28 0.17 0.04 0.02 0.03 0.02 0.03 0.26 0.64 0.28 0.21 0.16 0.13 0.10 0.02 0.00 0.05 0.09 0.18
0.20 0.17 0.16 0.12 0.09 0.07 0.06 0.09 0.11 0.12 0.25 0.55 0.89 0.55 0.36 0.25 0.14 0.43 0.88 0.78 0.35 0.31 0.60 0.47 0.42 0.22 0.29 0.50 0.46 0.42 0.30 0.18 0.09 0.05 0.03 0.10 0.20 0.10 0.10 0.02 0.05 0.10 0.03 0.00 0.00 0.00 0.00
0.27 0.25 0.23 0.19 0.13 0.07 0.07 0.11 0.14 0.15 0.13 0.16 0.19 0.33 0.61 0.39 0.20 0.37 0.45 0.47 0.39 0.42 0.45 0.43 0.54 0.67 0.56 0.42 0.37 0.34 0.35 0.38 0.35 0.29 0.21 0.19 0.23 0.23 0.19 0.00 0.11 0.35 0.06 0.00 0.00 0.00 0.01
0.31 0.31 0.25 0.22 0.18 0.11 0.10 0.13 0.12 0.12 0.06 0.01 0.09 0.26 0.50 0.50 0.40 0.33 0.27 0.29 0.34 0.42 0.64 0.33 0.26 0.36 0.28 0.26 0.23 0.19 0.20 0.17 0.17 0.14 0.24 0.36 0.25 0.42 0.37 0.21 0.51 0.08 0.00 0.00 0.00 0.01 0.00
0.27 0.28 0.33 0.31 0.26 0.18 0.15 0.14 0.12 0.09 0.06 0.01 0.03 0.21 0.42 0.33 0.19 0.27 0.34 0.29 0.22 0.29 0.39 0.32 0.27 0.28 0.29 0.37 0.51 0.39 0.22 0.17 0.07 0.06 0.06 0.18 0.34 0.37 0.35 0.23 0.11 0.01 0.00 0.00 0.03 0.01 0.00
0.29 0.21 0.21 0.30 0.39 0.29 0.19 0.16 0.14 0.12 0.10 0.08 0.03 0.11 0.24 0.31 0.22 0.20 0.45 0.43 0.33 0.23 0.27 0.35 0.20 0.12 0.27 0.36 0.47 0.35 0.23 0.19 0.11 0.06 0.03 0.09 0.29 0.65 0.46 0.31 0.09 0.00 0.00 0.03 0.09 0.12 0.06
0.23 0.19 0.16 0.17 0.18 0.35 0.43 0.25 0.18 0.16 0.14 0.11 0.05 0.08 0.15 0.19 0.06 0.10 0.17 0.24 0.28 0.20 0.25 0.23 0.19 0.15 0.25 0.39 0.48 0.31 0.14 0.09 0.13 0.10 0.13 0.25 0.50 0.82 0.71 0.76 0.33 0.04 0.02 0.02 0.10 0.13 0.07
0.20 0.21 0.19 0.19 0.14 0.13 0.24 0.58 0.52 0.25 0.18 0.18 0.06 0.08 0.12 0.10 0.02 0.03 0.03 0.01 0.02 0.09 0.18 0.23 0.21 0.23 0.45 0.71 0.71 0.53 0.36 0.20 0.08 0.04 0.08 0.21 0.36 0.39 0.57 0.70 0.36 0.10 0.13 0.17 0.14 0.05 0.03
0.28 0.22 0.25 0.19 0.21 0.14 0.14 0.18 0.53 0.66 0.28 0.26 0.10 0.09 0.16 0.18 0.07 0.05 0.02 0.01 0.01 0.01 0.05 0.12 0.16 0.16 0.37 0.59 0.68 0.54 0.43 0.28 0.18 0.16 0.11 0.14 0.19 0.29 0.31 0.38 0.31 0.20 0.08 0.02 0.01 0.01 0.00